Wetterdaten: Dienstag, 26.08.2014
Datum Zeit Temp. Aussen +5cm Feuchte Auss Luftdruck Regen Sonnenschein Regendauer UV Solar Windben
26.08.2014 00:00 13,9 C 12,8 C 99 % 1006,7 hPa 0,0 l/m 0 min 2 min 0,0 UV-I 0 W/m 14,2 km/h (3 Bft)
26.08.2014 00:02 13,9 C 12,8 C 99 % 1006,7 hPa 0,0 l/m 0 min 2 min 0,0 UV-I 0 W/m 24,7 km/h (4 Bft)
26.08.2014 00:05 13,9 C 12,8 C 99 % 1006,6 hPa 0,4 l/m 0 min 2 min 0,0 UV-I 0 W/m 24,7 km/h (4 Bft)
26.08.2014 00:06 13,9 C 12,8 C 99 % 1006,6 hPa 0,0 l/m 0 min 1 min 0,0 UV-I 0 W/m 21,3 km/h (4 Bft)
26.08.2014 00:08 13,9 C 12,8 C 99 % 1006,6 hPa 0,0 l/m 0 min 2 min 0,0 UV-I 0 W/m 17,7 km/h (3 Bft)
26.08.2014 00:10 13,9 C 12,8 C 99 % 1006,5 hPa 0,0 l/m 0 min 2 min 0,0 UV-I 0 W/m 24,7 km/h (4 Bft)
26.08.2014 00:12 13,9 C 12,8 C 99 % 1006,5 hPa 0,0 l/m 0 min 2 min 0,0 UV-I 0 W/m 31,7 km/h (5 Bft)
26.08.2014 00:14 13,9 C 12,8 C 99 % 1006,3 hPa 0,2 l/m 0 min 2 min 0,0 UV-I 0 W/m 28,2 km/h (4 Bft)
26.08.2014 00:16 13,9 C 12,8 C 99 % 1006,2 hPa 0,0 l/m 0 min 2 min 0,0 UV-I 0 W/m 28,2 km/h (4 Bft)
26.08.2014 00:18 13,9 C 12,8 C 99 % 1006,4 hPa 0,0 l/m 0 min 2 min 0,0 UV-I 0 W/m 28,2 km/h (4 Bft)
26.08.2014 00:20 13,9 C 12,8 C 99 % 1006,4 hPa 0,2 l/m 0 min 2 min 0,0 UV-I 0 W/m 21,3 km/h (4 Bft)
26.08.2014 00:22 13,9 C 12,8 C 99 % 1006,5 hPa 0,0 l/m 0 min 2 min 0,0 UV-I 0 W/m 21,3 km/h (4 Bft)
26.08.2014 00:24 13,8 C 12,8 C 99 % 1006,3 hPa 0,0 l/m 0 min 2 min 0,0 UV-I 0 W/m 14,2 km/h (3 Bft)
26.08.2014 00:26 13,8 C 12,8 C 99 % 1006,3 hPa 0,0 l/m 0 min 2 min 0,0 UV-I 0 W/m 17,7 km/h (3 Bft)
26.08.2014 00:28 13,8 C 12,8 C 99 % 1006,3 hPa 0,0 l/m 0 min 2 min 0,0 UV-I 0 W/m 28,2 km/h (4 Bft)
26.08.2014 00:30 13,8 C 12,8 C 99 % 1006,3 hPa 0,2 l/m 0 min 2 min 0,0 UV-I 0 W/m 28,2 km/h (4 Bft)
26.08.2014 00:32 13,8 C 12,8 C 99 % 1006,2 hPa 0,0 l/m 0 min 2 min 0,0 UV-I 0 W/m 31,7 km/h (5 Bft)
26.08.2014 00:34 13,8 C 12,8 C 99 % 1006,2 hPa 0,0 l/m 0 min 2 min 0,0 UV-I 0 W/m 31,7 km/h (5 Bft)
26.08.2014 00:36 13,8 C 12,8 C 99 % 1006,2 hPa 0,0 l/m 0 min 2 min 0,0 UV-I 0 W/m 31,7 km/h (5 Bft)
26.08.2014 00:38 13,8 C 12,8 C 99 % 1006,0 hPa 0,2 l/m 0 min 2 min 0,0 UV-I 0 W/m 28,2 km/h (4 Bft)
26.08.2014 00:40 13,8 C 12,8 C 99 % 1006,1 hPa 0,0 l/m 0 min 2 min 0,0 UV-I 0 W/m 31,7 km/h (5 Bft)
26.08.2014 00:42 13,8 C 12,8 C 99 % 1006,1 hPa 0,0 l/m 0 min 2 min 0,0 UV-I 0 W/m 17,7 km/h (3 Bft)
26.08.2014 00:44 13,7 C 12,8 C 99 % 1006,0 hPa 0,0 l/m 0 min 2 min 0,0 UV-I 0 W/m 28,2 km/h (4 Bft)
26.08.2014 00:46 13,7 C 12,8 C 99 % 1005,9 hPa 0,0 l/m 0 min 2 min 0,0 UV-I 0 W/m 24,7 km/h (4 Bft)
26.08.2014 00:48 13,7 C 12,8 C 99 % 1005,9 hPa 0,0 l/m 0 min 2 min 0,0 UV-I 0 W/m 17,7 km/h (3 Bft)
26.08.2014 00:50 13,7 C 12,8 C 99 % 1005,9 hPa 0,2 l/m 0 min 2 min 0,0 UV-I 0 W/m 28,2 km/h (4 Bft)
26.08.2014 00:52 13,7 C 12,8 C 99 % 1005,9 hPa 0,0 l/m 0 min 2 min 0,0 UV-I 0 W/m 21,3 km/h (4 Bft)
26.08.2014 00:54 13,7 C 12,8 C 99 % 1005,8 hPa 0,0 l/m 0 min 2 min 0,0 UV-I 0 W/m 21,3 km/h (4 Bft)
26.08.2014 00:56 13,7 C 12,8 C 99 % 1005,8 hPa 0,2 l/m 0 min 2 min 0,0 UV-I 0 W/m 38,9 km/h (6 Bft)
26.08.2014 00:58 13,7 C 12,8 C 99 % 1005,8 hPa 0,0 l/m 0 min 2 min 0,0 UV-I 0 W/m 35,4 km/h (5 Bft)
26.08.2014 01:00 13,7 C 12,8 C 99 % 1005,8 hPa 0,0 l/m 0 min 2 min 0,0 UV-I 0 W/m 28,2 km/h (4 Bft)
26.08.2014 01:02 13,7 C 12,8 C 99 % 1005,8 hPa 0,0 l/m 0 min 2 min 0,0 UV-I 0 W/m 17,7 km/h (3 Bft)
26.08.2014 01:04 13,7 C 12,8 C 99 % 1005,8 hPa 0,0 l/m 0 min 2 min 0,0 UV-I 0 W/m 38,9 km/h (6 Bft)
26.08.2014 01:06 13,7 C 12,8 C 99 % 1005,8 hPa 0,0 l/m 0 min 2 min 0,0 UV-I 0 W/m 21,3 km/h (4 Bft)
26.08.2014 01:08 13,7 C 12,8 C 99 % 1005,8 hPa 0,2 l/m 0 min 2 min 0,0 UV-I 0 W/m 28,2 km/h (4 Bft)
26.08.2014 01:10 13,7 C 12,8 C 99 % 1005,7 hPa 0,0 l/m 0 min 2 min 0,0 UV-I 0 W/m 28,2 km/h (4 Bft)
26.08.2014 01:12 13,7 C 12,8 C 99 % 1005,7 hPa 0,0 l/m 0 min 2 min 0,0 UV-I 0 W/m 31,7 km/h (5 Bft)
26.08.2014 01:14 13,7 C 12,8 C 99 % 1005,6 hPa 0,0 l/m 0 min 2 min 0,0 UV-I 0 W/m 28,2 km/h (4 Bft)
26.08.2014 01:16 13,6 C 12,8 C 99 % 1005,6 hPa 0,0 l/m 0 min 2 min 0,0 UV-I 0 W/m 28,2 km/h (4 Bft)
26.08.2014 01:18 13,7 C 12,8 C 99 % 1005,6 hPa 0,2 l/m 0 min 2 min 0,0 UV-I 0 W/m 17,7 km/h (3 Bft)
26.08.2014 01:20 13,7 C 12,2 C 99 % 1005,6 hPa 0,0 l/m 0 min 2 min 0,0 UV-I 0 W/m 21,3 km/h (4 Bft)
26.08.2014 01:22 13,6 C 12,8 C 99 % 1005,6 hPa 0,0 l/m 0 min 2 min 0,0 UV-I 0 W/m 24,7 km/h (4 Bft)
26.08.2014 01:24 13,6 C 12,2 C 99 % 1005,5 hPa 0,2 l/m 0 min 2 min 0,0 UV-I 0 W/m 17,7 km/h (3 Bft)
26.08.2014 01:26 13,6 C 12,2 C 99 % 1005,5 hPa 0,0 l/m 0 min 2 min 0,0 UV-I 0 W/m 17,7 km/h (3 Bft)
26.08.2014 01:28 13,6 C 12,2 C 99 % 1005,4 hPa 0,2 l/m 0 min 2 min 0,0 UV-I 0 W/m 24,7 km/h (4 Bft)
26.08.2014 01:30 13,6 C 12,2 C 99 % 1005,4 hPa 0,0 l/m 0 min 2 min 0,0 UV-I 0 W/m 17,7 km/h (3 Bft)
26.08.2014 01:32 13,6 C 12,2 C 99 % 1005,4 hPa 0,2 l/m 0 min 2 min 0,0 UV-I 0 W/m 17,7 km/h (3 Bft)
26.08.2014 01:34 13,6 C 12,2 C 99 % 1005,4 hPa 0,0 l/m 0 min 2 min 0,0 UV-I 0 W/m 28,2 km/h (4 Bft)
26.08.2014 01:36 13,6 C 12,2 C 99 % 1005,3 hPa 0,2 l/m 0 min 2 min 0,0 UV-I 0 W/m 21,3 km/h (4 Bft)
26.08.2014 01:38 13,6 C 12,2 C 99 % 1005,2 hPa 0,0 l/m 0 min 2 min 0,0 UV-I 0 W/m 24,7 km/h (4 Bft)
26.08.2014 01:40 13,6 C 12,2 C 99 % 1005,2 hPa 0,2 l/m 0 min 2 min 0,0 UV-I 0 W/m 21,3 km/h (4 Bft)
26.08.2014 01:42 13,5 C 12,2 C 99 % 1005,1 hPa 0,2 l/m 0 min 2 min 0,0 UV-I 0 W/m 21,3 km/h (4 Bft)
26.08.2014 01:44 13,5 C 12,2 C 99 % 1005,1 hPa 0,0 l/m 0 min 2 min 0,0 UV-I 0 W/m 21,3 km/h (4 Bft)
26.08.2014 01:46 13,5 C 12,2 C 99 % 1005,1 hPa 0,2 l/m 0 min 2 min 0,0 UV-I 0 W/m 21,3 km/h (4 Bft)
26.08.2014 01:48 13,5 C 12,2 C 99 % 1005,0 hPa 0,0 l/m 0 min 2 min 0,0 UV-I 0 W/m 17,7 km/h (3 Bft)
26.08.2014 01:50 13,5 C 12,2 C 99 % 1005,0 hPa 0,2 l/m 0 min 2 min 0,0 UV-I 0 W/m 21,3 km/h (4 Bft)
26.08.2014 01:52 13,5 C 12,2 C 99 % 1004,9 hPa 0,0 l/m 0 min 2 min 0,0 UV-I 0 W/m 17,7 km/h (3 Bft)
26.08.2014 01:54 13,5 C 12,2 C 99 % 1004,9 hPa 0,2 l/m 0 min 2 min 0,0 UV-I 0 W/m 17,7 km/h (3 Bft)
26.08.2014 01:56 13,5 C 12,2 C 99 % 1004,8 hPa 0,2 l/m 0 min 2 min 0,0 UV-I 0 W/m 14,2 km/h (3 Bft)
26.08.2014 01:58 13,5 C 12,2 C 99 % 1004,8 hPa 0,0 l/m 0 min 2 min 0,0 UV-I 0 W/m 24,7 km/h (4 Bft)
26.08.2014 02:00 13,5 C 12,2 C 99 % 1004,8 hPa 0,2 l/m 0 min 2 min 0,0 UV-I 0 W/m 14,2 km/h (3 Bft)
26.08.2014 02:02 13,6 C 12,2 C 99 % 1004,7 hPa 0,0 l/m 0 min 2 min 0,0 UV-I 0 W/m 14,2 km/h (3 Bft)
26.08.2014 02:04 13,6 C 12,2 C 99 % 1004,7 hPa 0,2 l/m 0 min 2 min 0,0 UV-I 0 W/m 14,2 km/h (3 Bft)
26.08.2014 02:06 13,6 C 12,2 C 99 % 1004,6 hPa 0,0 l/m 0 min 2 min 0,0 UV-I 0 W/m 17,7 km/h (3 Bft)
26.08.2014 02:08 13,6 C 12,2 C 99 % 1004,6 hPa 0,0 l/m 0 min 2 min 0,0 UV-I 0 W/m 17,7 km/h (3 Bft)
26.08.2014 02:10 13,6 C 12,2 C 99 % 1004,6 hPa 0,2 l/m 0 min 2 min 0,0 UV-I 0 W/m 21,3 km/h (4 Bft)
26.08.2014 02:12 13,6 C 12,2 C 99 % 1004,5 hPa 0,2 l/m 0 min 2 min 0,0 UV-I 0 W/m 17,7 km/h (3 Bft)
26.08.2014 02:14 13,6 C 12,2 C 99 % 1004,5 hPa 0,0 l/m 0 min 2 min 0,0 UV-I 0 W/m 21,3 km/h (4 Bft)
26.08.2014 02:16 13,6 C 12,2 C 99 % 1004,5 hPa 0,0 l/m 0 min 2 min 0,0 UV-I 0 W/m 31,7 km/h (5 Bft)
26.08.2014 02:18 13,6 C 12,2 C 99 % 1004,5 hPa 0,2 l/m 0 min 2 min 0,0 UV-I 0 W/m 14,2 km/h (3 Bft)
26.08.2014 02:20 13,6 C 12,2 C 99 % 1004,4 hPa 0,2 l/m 0 min 2 min 0,0 UV-I 0 W/m 17,7 km/h (3 Bft)
26.08.2014 02:22 13,6 C 12,2 C 99 % 1004,4 hPa 0,0 l/m 0 min 2 min 0,0 UV-I 0 W/m 24,7 km/h (4 Bft)
26.08.2014 02:24 13,6 C 12,2 C 99 % 1004,4 hPa 0,2 l/m 0 min 2 min 0,0 UV-I 0 W/m 21,3 km/h (4 Bft)
26.08.2014 02:26 13,6 C 12,2 C 99 % 1004,3 hPa 0,2 l/m 0 min 2 min 0,0 UV-I 0 W/m 17,7 km/h (3 Bft)
26.08.2014 02:28 13,6 C 12,2 C 99 % 1004,3 hPa 0,0 l/m 0 min 2 min 0,0 UV-I 0 W/m 28,2 km/h (4 Bft)
26.08.2014 02:30 13,6 C 12,2 C 99 % 1004,2 hPa 0,2 l/m 0 min 2 min 0,0 UV-I 0 W/m 24,7 km/h (4 Bft)
26.08.2014 02:32 13,5 C 12,2 C 99 % 1004,3 hPa 0,2 l/m 0 min 2 min 0,0 UV-I 0 W/m 17,7 km/h (3 Bft)
26.08.2014 02:34 13,5 C 12,2 C 99 % 1004,3 hPa 0,0 l/m 0 min 2 min 0,0 UV-I 0 W/m 28,2 km/h (4 Bft)
26.08.2014 02:36 13,6 C 12,2 C 99 % 1004,2 hPa 0,2 l/m 0 min 2 min 0,0 UV-I 0 W/m 14,2 km/h (3 Bft)
26.08.2014 02:38 13,5 C 12,2 C 99 % 1004,2 hPa 0,0 l/m 0 min 2 min 0,0 UV-I 0 W/m 24,7 km/h (4 Bft)
26.08.2014 02:40 13,5 C 12,2 C 99 % 1004,2 hPa 0,2 l/m 0 min 2 min 0,0 UV-I 0 W/m 28,2 km/h (4 Bft)
26.08.2014 02:42 13,5 C 12,2 C 99 % 1004,1 hPa 0,0 l/m 0 min 2 min 0,0 UV-I 0 W/m 35,4 km/h (5 Bft)
26.08.2014 02:44 13,5 C 12,2 C 99 % 1004,1 hPa 0,2 l/m 0 min 2 min 0,0 UV-I 0 W/m 17,7 km/h (3 Bft)
26.08.2014 02:46 13,5 C 12,2 C 99 % 1004,0 hPa 0,0 l/m 0 min 2 min 0,0 UV-I 0 W/m 14,2 km/h (3 Bft)
26.08.2014 02:48 13,5 C 12,2 C 99 % 1004,0 hPa 0,2 l/m 0 min 2 min 0,0 UV-I 0 W/m 14,2 km/h (3 Bft)
26.08.2014 02:50 13,5 C 12,2 C 99 % 1004,0 hPa 0,0 l/m 0 min 2 min 0,0 UV-I 0 W/m 28,2 km/h (4 Bft)
26.08.2014 02:52 13,5 C 12,2 C 99 % 1004,0 hPa 0,0 l/m 0 min 2 min 0,0 UV-I 0 W/m 21,3 km/h (4 Bft)
26.08.2014 02:54 13,5 C 12,2 C 99 % 1004,0 hPa 0,0 l/m 0 min 2 min 0,0 UV-I 0 W/m 21,3 km/h (4 Bft)
26.08.2014 02:56 13,5 C 12,2 C 99 % 1003,9 hPa 0,2 l/m 0 min 2 min 0,0 UV-I 0 W/m 17,7 km/h (3 Bft)
26.08.2014 02:58 13,5 C 12,2 C 99 % 1003,9 hPa 0,0 l/m 0 min 2 min 0,0 UV-I 0 W/m 24,7 km/h (4 Bft)
26.08.2014 03:00 13,5 C 12,2 C 99 % 1003,9 hPa 0,2 l/m 0 min 2 min 0,0 UV-I 0 W/m 21,3 km/h (4 Bft)
26.08.2014 03:02 13,4 C 12,2 C 99 % 1003,8 hPa 0,0 l/m 0 min 2 min 0,0 UV-I 0 W/m 31,7 km/h (5 Bft)
26.08.2014 03:04 13,4 C 12,2 C 99 % 1003,8 hPa 0,0 l/m 0 min 2 min 0,0 UV-I 0 W/m 21,3 km/h (4 Bft)
26.08.2014 03:06 13,4 C 12,2 C 99 % 1003,7 hPa 0,0 l/m 0 min 2 min 0,0 UV-I 0 W/m 14,2 km/h (3 Bft)
26.08.2014 03:08 13,4 C 12,2 C 99 % 1003,7 hPa 0,2 l/m 0 min 2 min 0,0 UV-I 0 W/m 24,7 km/h (4 Bft)
26.08.2014 03:10 13,4 C 12,2 C 99 % 1003,6 hPa 0,0 l/m 0 min 2 min 0,0 UV-I 0 W/m 31,7 km/h (5 Bft)
26.08.2014 03:12 13,4 C 12,2 C 99 % 1003,6 hPa 0,0 l/m 0 min 2 min 0,0 UV-I 0 W/m 31,7 km/h (5 Bft)
26.08.2014 03:14 13,4 C 12,2 C 99 % 1003,7 hPa 0,2 l/m 0 min 2 min 0,0 UV-I 0 W/m 31,7 km/h (5 Bft)
26.08.2014 03:16 13,4 C 12,2 C 99 % 1003,6 hPa 0,0 l/m 0 min 2 min 0,0 UV-I 0 W/m 24,7 km/h (4 Bft)
26.08.2014 03:18 13,4 C 12,2 C 99 % 1003,6 hPa 0,0 l/m 0 min 2 min 0,0 UV-I 0 W/m 31,7 km/h (5 Bft)
26.08.2014 03:20 13,4 C 12,2 C 99 % 1003,6 hPa 0,2 l/m 0 min 2 min 0,0 UV-I 0 W/m 17,7 km/h (3 Bft)
26.08.2014 03:22 13,4 C 12,2 C 99 % 1003,6 hPa 0,0 l/m 0 min 2 min 0,0 UV-I 0 W/m 17,7 km/h (3 Bft)
26.08.2014 03:24 13,4 C 12,2 C 99 % 1003,5 hPa 0,0 l/m 0 min 2 min 0,0 UV-I 0 W/m 24,7 km/h (4 Bft)
26.08.2014 03:26 13,4 C 12,2 C 99 % 1003,5 hPa 0,2 l/m 0 min 2 min 0,0 UV-I 0 W/m 21,3 km/h (4 Bft)
26.08.2014 03:28 13,4 C 12,2 C 99 % 1003,4 hPa 0,0 l/m 0 min 2 min 0,0 UV-I 0 W/m 17,7 km/h (3 Bft)
26.08.2014 03:30 13,4 C 12,2 C 99 % 1003,5 hPa 0,0 l/m 0 min 2 min 0,0 UV-I 0 W/m 31,7 km/h (5 Bft)
26.08.2014 03:32 13,4 C 12,2 C 99 % 1003,4 hPa 0,0 l/m 0 min 2 min 0,0 UV-I 0 W/m 24,7 km/h (4 Bft)
26.08.2014 03:34 13,4 C 12,2 C 99 % 1003,4 hPa 0,2 l/m 0 min 2 min 0,0 UV-I 0 W/m 24,7 km/h (4 Bft)
26.08.2014 03:36 13,4 C 12,2 C 99 % 1003,5 hPa 0,0 l/m 0 min 2 min 0,0 UV-I 0 W/m 10,7 km/h (2 Bft)
26.08.2014 03:38 13,4 C 12,2 C 99 % 1003,4 hPa 0,2 l/m 0 min 2 min 0,0 UV-I 0 W/m 17,7 km/h (3 Bft)
26.08.2014 03:40 13,4 C 12,2 C 99 % 1003,4 hPa 0,0 l/m 0 min 2 min 0,0 UV-I 0 W/m 21,3 km/h (4 Bft)
26.08.2014 03:42 13,4 C 12,2 C 99 % 1003,3 hPa 0,2 l/m 0 min 2 min 0,0 UV-I 0 W/m 17,7 km/h (3 Bft)
26.08.2014 03:44 13,4 C 12,2 C 99 % 1003,3 hPa 0,2 l/m 0 min 2 min 0,0 UV-I 0 W/m 17,7 km/h (3 Bft)
26.08.2014 03:46 13,4 C 12,2 C 99 % 1003,3 hPa 0,0 l/m 0 min 2 min 0,0 UV-I 0 W/m 28,2 km/h (4 Bft)
26.08.2014 03:48 13,4 C 12,2 C 99 % 1003,3 hPa 0,0 l/m 0 min 2 min 0,0 UV-I 0 W/m 21,3 km/h (4 Bft)
26.08.2014 03:50 13,4 C 12,2 C 99 % 1003,3 hPa 0,2 l/m 0 min 2 min 0,0 UV-I 0 W/m 21,3 km/h (4 Bft)
26.08.2014 03:52 13,4 C 12,2 C 99 % 1003,3 hPa 0,2 l/m 0 min 2 min 0,0 UV-I 0 W/m 17,7 km/h (3 Bft)
26.08.2014 03:54 13,4 C 12,2 C 99 % 1003,3 hPa 0,0 l/m 0 min 2 min 0,0 UV-I 0 W/m 21,3 km/h (4 Bft)
26.08.2014 03:56 13,3 C 12,2 C 99 % 1003,3 hPa 0,0 l/m 0 min 2 min 0,0 UV-I 0 W/m 28,2 km/h (4 Bft)
26.08.2014 03:58 13,3 C 12,2 C 99 % 1003,3 hPa 0,0 l/m 0 min 2 min 0,0 UV-I 0 W/m 21,3 km/h (4 Bft)
26.08.2014 04:00 13,3 C 12,2 C 99 % 1003,3 hPa 0,2 l/m 0 min 2 min 0,0 UV-I 0 W/m 21,3 km/h (4 Bft)
26.08.2014 04:02 13,3 C 12,2 C 99 % 1003,3 hPa 0,2 l/m 0 min 2 min 0,0 UV-I 0 W/m 24,7 km/h (4 Bft)
26.08.2014 04:04 13,3 C 12,2 C 99 % 1003,1 hPa 0,0 l/m 0 min 2 min 0,0 UV-I 0 W/m 21,3 km/h (4 Bft)
26.08.2014 04:06 13,3 C 12,2 C 99 % 1003,1 hPa 0,0 l/m 0 min 2 min 0,0 UV-I 0 W/m 21,3 km/h (4 Bft)
26.08.2014 04:08 13,4 C 12,2 C 99 % 1003,1 hPa 0,0 l/m 0 min 2 min 0,0 UV-I 0 W/m 14,2 km/h (3 Bft)
26.08.2014 04:10 13,3 C 12,2 C 99 % 1003,1 hPa 0,2 l/m 0 min 2 min 0,0 UV-I 0 W/m 17,7 km/h (3 Bft)
26.08.2014 04:12 13,3 C 12,2 C 99 % 1003,1 hPa 0,0 l/m 0 min 2 min 0,0 UV-I 0 W/m 21,3 km/h (4 Bft)
26.08.2014 04:14 13,3 C 12,2 C 99 % 1003,0 hPa 0,0 l/m 0 min 2 min 0,0 UV-I 0 W/m 17,7 km/h (3 Bft)
26.08.2014 04:16 13,3 C 12,2 C 99 % 1003,0 hPa 0,2 l/m 0 min 2 min 0,0 UV-I 0 W/m 17,7 km/h (3 Bft)
26.08.2014 04:18 13,3 C 12,2 C 99 % 1003,0 hPa 0,0 l/m 0 min 2 min 0,0 UV-I 0 W/m 28,2 km/h (4 Bft)
26.08.2014 04:20 13,3 C 12,2 C 99 % 1003,0 hPa 0,0 l/m 0 min 2 min 0,0 UV-I 0 W/m 28,2 km/h (4 Bft)
26.08.2014 04:22 13,3 C 12,2 C 99 % 1003,0 hPa 0,0 l/m 0 min 2 min 0,0 UV-I 0 W/m 14,2 km/h (3 Bft)
26.08.2014 04:24 13,3 C 12,2 C 99 % 1003,0 hPa 0,0 l/m 0 min 2 min 0,0 UV-I 0 W/m 24,7 km/h (4 Bft)
26.08.2014 04:26 13,3 C 12,2 C 99 % 1003,0 hPa 0,0 l/m 0 min 2 min 0,0 UV-I 0 W/m 17,7 km/h (3 Bft)
26.08.2014 04:28 13,3 C 12,2 C 99 % 1003,0 hPa 0,2 l/m 0 min 2 min 0,0 UV-I 0 W/m 28,2 km/h (4 Bft)
26.08.2014 04:30 13,3 C 12,2 C 99 % 1003,0 hPa 0,2 l/m 0 min 2 min 0,0 UV-I 0 W/m 17,7 km/h (3 Bft)
26.08.2014 04:32 13,3 C 12,2 C 99 % 1002,9 hPa 0,0 l/m 0 min 2 min 0,0 UV-I 0 W/m 14,2 km/h (3 Bft)
26.08.2014 04:34 13,3 C 12,2 C 99 % 1002,9 hPa 0,2 l/m 0 min 2 min 0,0 UV-I 0 W/m 21,3 km/h (4 Bft)
26.08.2014 04:36 13,3 C 12,2 C 99 % 1002,9 hPa 0,0 l/m 0 min 2 min 0,0 UV-I 0 W/m 28,2 km/h (4 Bft)
26.08.2014 04:38 13,3 C 12,2 C 99 % 1002,9 hPa 0,2 l/m 0 min 2 min 0,0 UV-I 0 W/m 24,7 km/h (4 Bft)
26.08.2014 04:40 13,3 C 12,2 C 99 % 1002,8 hPa 0,0 l/m 0 min 2 min 0,0 UV-I 0 W/m 14,2 km/h (3 Bft)
26.08.2014 04:42 13,3 C 12,2 C 99 % 1002,8 hPa 0,0 l/m 0 min 2 min 0,0 UV-I 0 W/m 14,2 km/h (3 Bft)
26.08.2014 04:44 13,3 C 12,2 C 99 % 1002,8 hPa 0,2 l/m 0 min 2 min 0,0 UV-I 0 W/m 31,7 km/h (5 Bft)
26.08.2014 04:46 13,3 C 12,2 C 99 % 1002,7 hPa 0,2 l/m 0 min 2 min 0,0 UV-I 0 W/m 24,7 km/h (4 Bft)
26.08.2014 04:48 13,3 C 12,2 C 99 % 1002,7 hPa 0,0 l/m 0 min 2 min 0,0 UV-I 0 W/m 17,7 km/h (3 Bft)
26.08.2014 04:50 13,3 C 12,2 C 99 % 1002,6 hPa 0,2 l/m 0 min 2 min 0,0 UV-I 0 W/m 21,3 km/h (4 Bft)
26.08.2014 04:52 13,3 C 12,2 C 99 % 1002,6 hPa 0,2 l/m 0 min 2 min 0,0 UV-I 0 W/m 28,2 km/h (4 Bft)
26.08.2014 04:54 13,3 C 12,2 C 99 % 1002,4 hPa 0,0 l/m 0 min 2 min 0,0 UV-I 0 W/m 28,2 km/h (4 Bft)
26.08.2014 04:56 13,3 C 12,2 C 99 % 1002,4 hPa 0,0 l/m 0 min 2 min 0,0 UV-I 0 W/m 42,4 km/h (6 Bft)
26.08.2014 04:58 13,2 C 12,2 C 99 % 1002,3 hPa 0,2 l/m 0 min 2 min 0,0 UV-I 0 W/m 35,4 km/h (5 Bft)
26.08.2014 05:00 13,2 C 12,2 C 99 % 1002,2 hPa 0,2 l/m 0 min 2 min 0,0 UV-I 0 W/m 35,4 km/h (5 Bft)
26.08.2014 05:02 13,2 C 12,2 C 99 % 1002,2 hPa 0,0 l/m 0 min 2 min 0,0 UV-I 0 W/m 35,4 km/h (5 Bft)
26.08.2014 05:04 13,2 C 12,2 C 99 % 1002,1 hPa 0,2 l/m 0 min 2 min 0,0 UV-I 0 W/m 42,4 km/h (6 Bft)
26.08.2014 05:06 13,1 C 12,2 C 99 % 1002,2 hPa 0,2 l/m 0 min 2 min 0,0 UV-I 0 W/m 31,7 km/h (5 Bft)
26.08.2014 05:08 13,1 C 12,2 C 99 % 1002,1 hPa 0,0 l/m 0 min 2 min 0,0 UV-I 0 W/m 31,7 km/h (5 Bft)
26.08.2014 05:10 13,1 C 12,2 C 99 % 1002,2 hPa 0,2 l/m 0 min 2 min 0,0 UV-I 0 W/m 21,3 km/h (4 Bft)
26.08.2014 05:12 13,1 C 12,2 C 99 % 1002,2 hPa 0,0 l/m 0 min 2 min 0,0 UV-I 0 W/m 31,7 km/h (5 Bft)
26.08.2014 05:14 13,1 C 12,2 C 99 % 1002,3 hPa 0,2 l/m 0 min 2 min 0,0 UV-I 0 W/m 42,4 km/h (6 Bft)
26.08.2014 05:16 13,1 C 12,2 C 99 % 1002,4 hPa 0,0 l/m 0 min 2 min 0,0 UV-I 0 W/m 24,7 km/h (4 Bft)
26.08.2014 05:18 13,1 C 12,2 C 99 % 1002,4 hPa 0,0 l/m 0 min 2 min 0,0 UV-I 0 W/m 21,3 km/h (4 Bft)
26.08.2014 05:20 13,1 C 12,2 C 99 % 1002,5 hPa 0,0 l/m 0 min 2 min 0,0 UV-I 0 W/m 14,2 km/h (3 Bft)
26.08.2014 05:22 13,1 C 12,2 C 99 % 1002,5 hPa 0,0 l/m 0 min 2 min 0,0 UV-I 0 W/m 14,2 km/h (3 Bft)
26.08.2014 05:24 13,1 C 12,2 C 99 % 1002,5 hPa 0,0 l/m 0 min 2 min 0,0 UV-I 0 W/m 3,5 km/h (1 Bft)
26.08.2014 05:26 13,1 C 12,2 C 99 % 1002,5 hPa 0,0 l/m 0 min 2 min 0,0 UV-I 0 W/m 21,3 km/h (4 Bft)
26.08.2014 05:28 13,1 C 12,2 C 99 % 1002,5 hPa 0,0 l/m 0 min 2 min 0,0 UV-I 0 W/m 31,7 km/h (5 Bft)
26.08.2014 05:30 13,1 C 12,2 C 99 % 1002,4 hPa 0,0 l/m 0 min 2 min 0,0 UV-I 0 W/m 31,7 km/h (5 Bft)
26.08.2014 05:32 13,1 C 12,2 C 99 % 1002,4 hPa 0,0 l/m 0 min 2 min 0,0 UV-I 0 W/m 31,7 km/h (5 Bft)
26.08.2014 05:34 13,1 C 12,2 C 99 % 1002,4 hPa 0,0 l/m 0 min 2 min 0,0 UV-I 0 W/m 17,7 km/h (3 Bft)
26.08.2014 05:36 13,1 C 12,2 C 99 % 1002,5 hPa 0,0 l/m 0 min 2 min 0,0 UV-I 0 W/m 17,7 km/h (3 Bft)
26.08.2014 05:38 13,1 C 12,2 C 99 % 1002,4 hPa 0,0 l/m 0 min 2 min 0,0 UV-I 0 W/m 17,7 km/h (3 Bft)
26.08.2014 05:40 13,1 C 12,2 C 99 % 1002,5 hPa 0,0 l/m 0 min 2 min 0,0 UV-I 0 W/m 24,7 km/h (4 Bft)
26.08.2014 05:42 13,1 C 12,2 C 99 % 1002,6 hPa 0,0 l/m 0 min 2 min 0,0 UV-I 0 W/m 17,7 km/h (3 Bft)
26.08.2014 05:44 13,1 C 12,2 C 99 % 1002,5 hPa 0,0 l/m 0 min 0 min 0,0 UV-I 0 W/m 24,7 km/h (4 Bft)
26.08.2014 05:46 13,1 C 12,2 C 99 % 1002,6 hPa 0,0 l/m 0 min 2 min 0,0 UV-I 0 W/m 24,7 km/h (4 Bft)
26.08.2014 05:48 13,1 C 12,2 C 99 % 1002,6 hPa 0,0 l/m 0 min 2 min 0,0 UV-I 0 W/m 17,7 km/h (3 Bft)
26.08.2014 05:50 13,1 C 12,2 C 99 % 1002,6 hPa 0,0 l/m 0 min 2 min 0,0 UV-I 0 W/m 14,2 km/h (3 Bft)
26.08.2014 05:52 13,1 C 12,2 C 99 % 1002,6 hPa 0,0 l/m 0 min 2 min 0,0 UV-I 0 W/m 14,2 km/h (3 Bft)
26.08.2014 05:54 13,1 C 12,2 C 99 % 1002,6 hPa 0,0 l/m 0 min 2 min 0,0 UV-I 0 W/m 0,0 km/h (0 Bft)
26.08.2014 05:56 13,1 C 12,2 C 99 % 1002,7 hPa 0,0 l/m 0 min 2 min 0,0 UV-I 0 W/m 14,2 km/h (3 Bft)
26.08.2014 05:58 13,1 C 12,2 C 99 % 1002,7 hPa 0,0 l/m 0 min 2 min 0,0 UV-I 0 W/m 24,7 km/h (4 Bft)
26.08.2014 06:00 13,1 C 12,2 C 99 % 1002,7 hPa 0,0 l/m 0 min 2 min 0,0 UV-I 0 W/m 10,7 km/h (2 Bft)
26.08.2014 06:02 13,1 C 12,2 C 99 % 1002,7 hPa 0,0 l/m 0 min 2 min 0,0 UV-I 0 W/m 14,2 km/h (3 Bft)
26.08.2014 06:06 13,1 C 12,2 C 99 % 1002,8 hPa 0,4 l/m 0 min 2 min 0,0 UV-I 0 W/m 14,2 km/h (3 Bft)
26.08.2014 06:08 13,1 C 12,2 C 99 % 1002,8 hPa 0,0 l/m 0 min 2 min 0,0 UV-I 0 W/m 7,1 km/h (2 Bft)
26.08.2014 06:10 13,1 C 12,2 C 99 % 1002,7 hPa 0,0 l/m 0 min 2 min 0,0 UV-I 0 W/m 17,7 km/h (3 Bft)
26.08.2014 06:12 13,1 C 12,2 C 99 % 1002,7 hPa 0,2 l/m 0 min 2 min 0,0 UV-I 0 W/m 10,7 km/h (2 Bft)
26.08.2014 06:14 13,1 C 12,2 C 99 % 1002,6 hPa 0,2 l/m 0 min 2 min 0,0 UV-I 0 W/m 17,7 km/h (3 Bft)
26.08.2014 06:16 13,1 C 12,2 C 99 % 1002,6 hPa 0,0 l/m 0 min 2 min 0,0 UV-I 0 W/m 24,7 km/h (4 Bft)
26.08.2014 06:18 13,1 C 12,2 C 99 % 1002,6 hPa 0,0 l/m 0 min 2 min 0,0 UV-I 0 W/m 3,5 km/h (1 Bft)
26.08.2014 06:20 13,1 C 12,2 C 99 % 1002,7 hPa 0,0 l/m 0 min 2 min 0,0 UV-I 0 W/m 14,2 km/h (3 Bft)
26.08.2014 06:22 13,1 C 12,2 C 99 % 1002,6 hPa 0,2 l/m 0 min 2 min 0,0 UV-I 0 W/m 21,3 km/h (4 Bft)
26.08.2014 06:24 13,1 C 12,2 C 99 % 1002,6 hPa 0,0 l/m 0 min 2 min 0,0 UV-I 0 W/m 17,7 km/h (3 Bft)
26.08.2014 06:26 13,1 C 12,2 C 99 % 1002,6 hPa 0,0 l/m 0 min 2 min 0,0 UV-I 0 W/m 14,2 km/h (3 Bft)
26.08.2014 06:28 13,1 C 12,2 C 99 % 1002,6 hPa 0,2 l/m 0 min 2 min 0,0 UV-I 0 W/m 17,7 km/h (3 Bft)
26.08.2014 06:30 13,1 C 12,2 C 99 % 1002,7 hPa 0,0 l/m 0 min 2 min 0,0 UV-I 0 W/m 21,3 km/h (4 Bft)
26.08.2014 06:32 13,1 C 12,2 C 99 % 1002,7 hPa 0,0 l/m 0 min 2 min 0,0 UV-I 0 W/m 14,2 km/h (3 Bft)
26.08.2014 06:34 13,1 C 12,2 C 99 % 1002,7 hPa 0,0 l/m 0 min 2 min 0,0 UV-I 0 W/m 14,2 km/h (3 Bft)
26.08.2014 06:36 13,1 C 12,2 C 99 % 1002,7 hPa 0,0 l/m 0 min 2 min 0,0 UV-I 0 W/m 10,7 km/h (2 Bft)
26.08.2014 06:38 13,1 C 12,2 C 99 % 1002,7 hPa 0,0 l/m 0 min 0 min 0,0 UV-I 0 W/m 17,7 km/h (3 Bft)
26.08.2014 06:40 13,1 C 12,2 C 99 % 1002,7 hPa 0,0 l/m 0 min 2 min 0,0 UV-I 0 W/m 14,2 km/h (3 Bft)
26.08.2014 06:42 13,1 C 12,2 C 99 % 1002,8 hPa 0,0 l/m 0 min 2 min 0,0 UV-I 0 W/m 14,2 km/h (3 Bft)
26.08.2014 06:44 13,1 C 12,2 C 99 % 1002,8 hPa 0,0 l/m 0 min 2 min 0,0 UV-I 0 W/m 17,7 km/h (3 Bft)
26.08.2014 06:46 13,1 C 12,2 C 99 % 1002,8 hPa 0,0 l/m 0 min 0 min 0,0 UV-I 0 W/m 10,7 km/h (2 Bft)
26.08.2014 06:48 13,1 C 12,2 C 99 % 1002,9 hPa 0,0 l/m 0 min 0 min 0,0 UV-I 0 W/m 10,7 km/h (2 Bft)
26.08.2014 06:50 13,1 C 12,2 C 99 % 1002,9 hPa 0,0 l/m 0 min 2 min 0,0 UV-I 0 W/m 10,7 km/h (2 Bft)
26.08.2014 06:52 13,1 C 12,2 C 99 % 1002,9 hPa 0,0 l/m 0 min 0 min 0,0 UV-I 0 W/m 0,0 km/h (0 Bft)
26.08.2014 06:54 13,1 C 12,2 C 99 % 1002,9 hPa 0,0 l/m 0 min 0 min 0,0 UV-I 0 W/m 3,5 km/h (1 Bft)
26.08.2014 06:56 13,1 C 12,2 C 99 % 1003,0 hPa 0,0 l/m 0 min 0 min 0,0 UV-I 0 W/m 17,7 km/h (3 Bft)
26.08.2014 06:58 13,1 C 12,2 C 99 % 1003,0 hPa 0,0 l/m 0 min 2 min 0,0 UV-I 0 W/m 3,5 km/h (1 Bft)
26.08.2014 07:00 13,1 C 12,2 C 99 % 1003,0 hPa 0,2 l/m 0 min 2 min 0,0 UV-I 0 W/m 17,7 km/h (3 Bft)
26.08.2014 07:02 13,1 C 12,2 C 99 % 1003,0 hPa 0,0 l/m 0 min 2 min 0,0 UV-I 0 W/m 14,2 km/h (3 Bft)
26.08.2014 07:04 13,1 C 12,2 C 99 % 1003,1 hPa 0,0 l/m 0 min 2 min 0,0 UV-I 0 W/m 14,2 km/h (3 Bft)
26.08.2014 07:06 13,1 C 12,2 C 99 % 1003,1 hPa 0,0 l/m 0 min 2 min 0,0 UV-I 0 W/m 14,2 km/h (3 Bft)
26.08.2014 07:08 13,1 C 12,2 C 99 % 1003,0 hPa 0,0 l/m 0 min 2 min 0,0 UV-I 5 W/m 14,2 km/h (3 Bft)
26.08.2014 07:10 13,1 C 12,2 C 100 % 1003,0 hPa 0,0 l/m 0 min 2 min 0,0 UV-I 5 W/m 17,7 km/h (3 Bft)
26.08.2014 07:12 13,1 C 12,2 C 100 % 1003,0 hPa 0,2 l/m 0 min 2 min 0,0 UV-I 6 W/m 17,7 km/h (3 Bft)
26.08.2014 07:14 13,0 C 12,2 C 100 % 1003,0 hPa 0,0 l/m 0 min 2 min 0,0 UV-I 8 W/m 14,2 km/h (3 Bft)
26.08.2014 07:16 13,0 C 12,2 C 100 % 1003,1 hPa 0,0 l/m 0 min 2 min 0,0 UV-I 9 W/m 0,0 km/h (0 Bft)
26.08.2014 07:18 13,0 C 12,2 C 100 % 1003,1 hPa 0,0 l/m 0 min 2 min 0,0 UV-I 10 W/m 0,0 km/h (0 Bft)
26.08.2014 07:20 13,1 C 12,2 C 100 % 1003,1 hPa 0,2 l/m 0 min 2 min 0,0 UV-I 11 W/m 17,7 km/h (3 Bft)
26.08.2014 07:22 13,1 C 12,2 C 100 % 1003,1 hPa 0,0 l/m 0 min 2 min 0,0 UV-I 11 W/m 14,2 km/h (3 Bft)
26.08.2014 07:24 13,1 C 12,2 C 100 % 1003,1 hPa 0,0 l/m 0 min 2 min 0,0 UV-I 10 W/m 17,7 km/h (3 Bft)
26.08.2014 07:26 13,1 C 12,2 C 100 % 1003,2 hPa 0,2 l/m 0 min 2 min 0,0 UV-I 9 W/m 17,7 km/h (3 Bft)
26.08.2014 07:28 13,1 C 12,2 C 100 % 1003,2 hPa 0,0 l/m 0 min 2 min 0,0 UV-I 9 W/m 14,2 km/h (3 Bft)
26.08.2014 07:30 13,1 C 12,2 C 100 % 1003,2 hPa 0,0 l/m 0 min 2 min 0,0 UV-I 9 W/m 10,7 km/h (2 Bft)
26.08.2014 07:32 13,1 C 12,2 C 100 % 1003,3 hPa 0,0 l/m 0 min 2 min 0,0 UV-I 9 W/m 0,0 km/h (0 Bft)
26.08.2014 07:34 13,1 C 12,2 C 100 % 1003,3 hPa 0,0 l/m 0 min 2 min 0,0 UV-I 9 W/m 3,5 km/h (1 Bft)
26.08.2014 07:36 13,1 C 12,2 C 100 % 1003,4 hPa 0,0 l/m 0 min 2 min 0,0 UV-I 9 W/m 14,2 km/h (3 Bft)
26.08.2014 07:38 13,1 C 12,2 C 99 % 1003,3 hPa 0,0 l/m 0 min 0 min 0,0 UV-I 11 W/m 0,0 km/h (0 Bft)
26.08.2014 07:40 13,1 C 12,2 C 99 % 1003,3 hPa 0,0 l/m 0 min 2 min 0,0 UV-I 12 W/m 3,5 km/h (1 Bft)
26.08.2014 07:42 13,1 C 12,2 C 99 % 1003,3 hPa 0,2 l/m 0 min 2 min 0,0 UV-I 16 W/m 0,0 km/h (0 Bft)
26.08.2014 07:44 13,1 C 12,2 C 99 % 1003,3 hPa 0,0 l/m 0 min 2 min 0,0 UV-I 20 W/m 0,0 km/h (0 Bft)
26.08.2014 07:46 13,1 C 12,2 C 99 % 1003,3 hPa 0,0 l/m 0 min 2 min 0,0 UV-I 21 W/m 3,5 km/h (1 Bft)
26.08.2014 07:48 13,2 C 12,2 C 99 % 1003,3 hPa 0,0 l/m 0 min 0 min 0,0 UV-I 20 W/m 0,0 km/h (0 Bft)
26.08.2014 07:50 13,2 C 12,2 C 99 % 1003,3 hPa 0,0 l/m 0 min 0 min 0,0 UV-I 18 W/m 10,7 km/h (2 Bft)
26.08.2014 07:52 13,2 C 12,2 C 99 % 1003,4 hPa 0,0 l/m 0 min 2 min 0,0 UV-I 18 W/m 0,0 km/h (0 Bft)
26.08.2014 07:54 13,2 C 12,2 C 99 % 1003,4 hPa 0,0 l/m 0 min 2 min 0,0 UV-I 19 W/m 10,7 km/h (2 Bft)
26.08.2014 07:56 13,2 C 12,2 C 99 % 1003,4 hPa 0,2 l/m 0 min 0 min 0,0 UV-I 23 W/m 14,2 km/h (3 Bft)
26.08.2014 07:58 13,2 C 12,2 C 99 % 1003,4 hPa 0,0 l/m 0 min 0 min 0,0 UV-I 31 W/m 10,7 km/h (2 Bft)
26.08.2014 08:00 13,2 C 12,2 C 99 % 1003,4 hPa 0,0 l/m 0 min 2 min 0,0 UV-I 32 W/m 10,7 km/h (2 Bft)
26.08.2014 08:02 13,2 C 12,2 C 99 % 1003,4 hPa 0,0 l/m 0 min 2 min 0,0 UV-I 32 W/m 14,2 km/h (3 Bft)
26.08.2014 08:04 13,2 C 12,2 C 99 % 1003,5 hPa 0,0 l/m 0 min 2 min 0,0 UV-I 32 W/m 14,2 km/h (3 Bft)
26.08.2014 08:06 13,2 C 12,2 C 99 % 1003,5 hPa 0,0 l/m 0 min 2 min 0,0 UV-I 29 W/m 21,3 km/h (4 Bft)
26.08.2014 08:08 13,2 C 12,2 C 99 % 1003,5 hPa 0,0 l/m 0 min 2 min 0,0 UV-I 28 W/m 17,7 km/h (3 Bft)
26.08.2014 08:10 13,2 C 12,2 C 99 % 1003,5 hPa 0,0 l/m 0 min 0 min 0,0 UV-I 30 W/m 0,0 km/h (0 Bft)
26.08.2014 08:12 13,3 C 12,2 C 100 % 1003,5 hPa 0,0 l/m 0 min 0 min 0,0 UV-I 32 W/m 10,7 km/h (2 Bft)
26.08.2014 08:14 13,3 C 12,2 C 100 % 1003,5 hPa 0,0 l/m 0 min 0 min 0,0 UV-I 35 W/m 24,7 km/h (4 Bft)
26.08.2014 08:16 13,3 C 12,2 C 100 % 1003,4 hPa 0,0 l/m 0 min 0 min 0,0 UV-I 35 W/m 10,7 km/h (2 Bft)
26.08.2014 08:18 13,3 C 12,2 C 100 % 1003,4 hPa 0,0 l/m 0 min 0 min 0,0 UV-I 33 W/m 21,3 km/h (4 Bft)
26.08.2014 08:20 13,3 C 12,2 C 100 % 1003,4 hPa 0,0 l/m 0 min 0 min 0,0 UV-I 31 W/m 17,7 km/h (3 Bft)
26.08.2014 08:22 13,3 C 12,2 C 100 % 1003,4 hPa 0,0 l/m 0 min 0 min 0,0 UV-I 29 W/m 10,7 km/h (2 Bft)
26.08.2014 08:24 13,3 C 12,2 C 100 % 1003,5 hPa 0,0 l/m 0 min 0 min 0,0 UV-I 31 W/m 17,7 km/h (3 Bft)
26.08.2014 08:26 13,3 C 12,2 C 100 % 1003,4 hPa 0,0 l/m 0 min 0 min 0,0 UV-I 38 W/m 28,2 km/h (4 Bft)
26.08.2014 08:28 13,3 C 12,2 C 100 % 1003,4 hPa 0,0 l/m 0 min 0 min 0,0 UV-I 43 W/m 10,7 km/h (2 Bft)
26.08.2014 08:30 13,3 C 12,2 C 100 % 1003,5 hPa 0,0 l/m 0 min 0 min 0,0 UV-I 54 W/m 14,2 km/h (3 Bft)
26.08.2014 08:32 13,3 C 12,2 C 100 % 1003,4 hPa 0,0 l/m 0 min 0 min 0,0 UV-I 66 W/m 21,3 km/h (4 Bft)
26.08.2014 08:34 13,4 C 12,8 C 100 % 1003,5 hPa 0,0 l/m 0 min 0 min 0,0 UV-I 84 W/m 17,7 km/h (3 Bft)
26.08.2014 08:36 13,4 C 12,8 C 100 % 1003,5 hPa 0,0 l/m 0 min 0 min 0,0 UV-I 90 W/m 24,7 km/h (4 Bft)
26.08.2014 08:38 13,4 C 12,8 C 100 % 1003,6 hPa 0,0 l/m 0 min 0 min 0,0 UV-I 80 W/m 17,7 km/h (3 Bft)
26.08.2014 08:40 13,4 C 12,8 C 100 % 1003,6 hPa 0,0 l/m 0 min 0 min 0,0 UV-I 74 W/m 24,7 km/h (4 Bft)
26.08.2014 08:42 13,4 C 12,8 C 100 % 1003,7 hPa 0,0 l/m 0 min 0 min 0,0 UV-I 60 W/m 17,7 km/h (3 Bft)
26.08.2014 08:44 13,4 C 12,8 C 100 % 1003,7 hPa 0,0 l/m 0 min 0 min 0,0 UV-I 53 W/m 17,7 km/h (3 Bft)
26.08.2014 08:46 13,4 C 12,8 C 100 % 1003,7 hPa 0,0 l/m 0 min 0 min 0,0 UV-I 44 W/m 7,1 km/h (2 Bft)
26.08.2014 08:48 13,4 C 12,8 C 100 % 1003,7 hPa 0,0 l/m 0 min 0 min 0,0 UV-I 40 W/m 17,7 km/h (3 Bft)
26.08.2014 08:50 13,5 C 12,8 C 100 % 1003,8 hPa 0,0 l/m 0 min 0 min 0,0 UV-I 40 W/m 21,3 km/h (4 Bft)
26.08.2014 08:52 13,4 C 12,2 C 100 % 1003,8 hPa 0,0 l/m 0 min 0 min 0,0 UV-I 35 W/m 28,2 km/h (4 Bft)
26.08.2014 08:54 13,4 C 12,2 C 100 % 1003,8 hPa 0,0 l/m 0 min 0 min 0,0 UV-I 30 W/m 24,7 km/h (4 Bft)
26.08.2014 08:56 13,3 C 12,2 C 100 % 1003,8 hPa 0,0 l/m 0 min 0 min 0,0 UV-I 26 W/m 24,7 km/h (4 Bft)
26.08.2014 08:58 13,3 C 12,2 C 100 % 1003,8 hPa 0,0 l/m 0 min 0 min 0,0 UV-I 25 W/m 17,7 km/h (3 Bft)
26.08.2014 09:00 13,3 C 12,2 C 100 % 1003,8 hPa 0,0 l/m 0 min 0 min 0,0 UV-I 22 W/m 14,2 km/h (3 Bft)
26.08.2014 09:02 13,4 C 12,2 C 100 % 1003,8 hPa 0,0 l/m 0 min 0 min 0,0 UV-I 21 W/m 14,2 km/h (3 Bft)
26.08.2014 09:04 13,4 C 12,2 C 100 % 1003,9 hPa 0,0 l/m 0 min 0 min 0,0 UV-I 23 W/m 17,7 km/h (3 Bft)
26.08.2014 09:06 13,3 C 12,2 C 100 % 1003,9 hPa 0,0 l/m 0 min 0 min 0,0 UV-I 33 W/m 17,7 km/h (3 Bft)
26.08.2014 09:08 13,3 C 12,8 C 100 % 1003,9 hPa 0,0 l/m 0 min 0 min 0,0 UV-I 41 W/m 17,7 km/h (3 Bft)
26.08.2014 09:10 13,4 C 12,8 C 100 % 1003,9 hPa 0,0 l/m 0 min 0 min 0,0 UV-I 46 W/m 10,7 km/h (2 Bft)
26.08.2014 09:12 13,4 C 12,8 C 100 % 1003,9 hPa 0,0 l/m 0 min 0 min 0,0 UV-I 49 W/m 0,0 km/h (0 Bft)
26.08.2014 09:14 13,4 C 12,8 C 100 % 1003,9 hPa 0,0 l/m 0 min 0 min 0,0 UV-I 52 W/m 17,7 km/h (3 Bft)
26.08.2014 09:16 13,4 C 12,8 C 100 % 1003,9 hPa 0,0 l/m 0 min 0 min 0,0 UV-I 54 W/m 17,7 km/h (3 Bft)
26.08.2014 09:18 13,4 C 12,8 C 100 % 1003,8 hPa 0,0 l/m 0 min 0 min 0,0 UV-I 60 W/m 17,7 km/h (3 Bft)
26.08.2014 09:20 13,5 C 12,8 C 100 % 1003,8 hPa 0,0 l/m 0 min 0 min 0,0 UV-I 72 W/m 28,2 km/h (4 Bft)
26.08.2014 09:22 13,5 C 12,8 C 100 % 1003,8 hPa 0,0 l/m 0 min 0 min 0,0 UV-I 94 W/m 17,7 km/h (3 Bft)
26.08.2014 09:24 13,6 C 12,8 C 100 % 1003,9 hPa 0,0 l/m 0 min 0 min 0,0 UV-I 112 W/m 24,7 km/h (4 Bft)
26.08.2014 09:26 13,6 C 12,8 C 100 % 1003,9 hPa 0,0 l/m 0 min 0 min 0,0 UV-I 102 W/m 17,7 km/h (3 Bft)
26.08.2014 09:28 13,6 C 12,8 C 100 % 1003,9 hPa 0,0 l/m 0 min 0 min 0,0 UV-I 81 W/m 17,7 km/h (3 Bft)
26.08.2014 09:30 13,7 C 12,8 C 100 % 1004,0 hPa 0,0 l/m 0 min 0 min 0,0 UV-I 87 W/m 14,2 km/h (3 Bft)
26.08.2014 09:32 13,8 C 12,8 C 100 % 1003,9 hPa 0,0 l/m 0 min 0 min 0,0 UV-I 100 W/m 17,7 km/h (3 Bft)
26.08.2014 09:34 13,7 C 12,8 C 100 % 1004,0 hPa 0,0 l/m 0 min 0 min 0,0 UV-I 105 W/m 24,7 km/h (4 Bft)
26.08.2014 09:36 13,8 C 12,8 C 100 % 1004,0 hPa 0,0 l/m 0 min 0 min 0,0 UV-I 106 W/m 24,7 km/h (4 Bft)
26.08.2014 09:38 13,8 C 12,8 C 100 % 1003,9 hPa 0,0 l/m 0 min 0 min 0,0 UV-I 110 W/m 24,7 km/h (4 Bft)
26.08.2014 09:40 13,8 C 13,3 C 100 % 1003,9 hPa 0,0 l/m 0 min 0 min 0,0 UV-I 142 W/m 28,2 km/h (4 Bft)
26.08.2014 09:42 13,8 C 13,3 C 100 % 1003,9 hPa 0,0 l/m 0 min 0 min 0,0 UV-I 163 W/m 24,7 km/h (4 Bft)
26.08.2014 09:44 13,8 C 13,3 C 100 % 1003,9 hPa 0,0 l/m 0 min 0 min 0,0 UV-I 147 W/m 28,2 km/h (4 Bft)
26.08.2014 09:46 13,9 C 13,3 C 100 % 1004,0 hPa 0,0 l/m 0 min 0 min 0,0 UV-I 131 W/m 10,7 km/h (2 Bft)
26.08.2014 09:48 13,9 C 13,3 C 100 % 1004,1 hPa 0,0 l/m 0 min 0 min 0,0 UV-I 105 W/m 24,7 km/h (4 Bft)
26.08.2014 09:50 13,9 C 13,3 C 100 % 1004,1 hPa 0,0 l/m 0 min 0 min 0,0 UV-I 94 W/m 28,2 km/h (4 Bft)
26.08.2014 09:52 13,8 C 13,3 C 100 % 1004,1 hPa 0,0 l/m 0 min 0 min 0,0 UV-I 85 W/m 24,7 km/h (4 Bft)
26.08.2014 09:54 13,8 C 13,3 C 100 % 1004,2 hPa 0,0 l/m 0 min 0 min 0,0 UV-I 78 W/m 14,2 km/h (3 Bft)
26.08.2014 09:56 13,8 C 13,3 C 100 % 1004,2 hPa 0,0 l/m 0 min 0 min 0,0 UV-I 73 W/m 14,2 km/h (3 Bft)
26.08.2014 09:58 13,8 C 12,8 C 100 % 1004,2 hPa 0,0 l/m 0 min 0 min 0,0 UV-I 68 W/m 21,3 km/h (4 Bft)
26.08.2014 10:00 13,8 C 12,8 C 100 % 1004,3 hPa 0,0 l/m 0 min 0 min 0,0 UV-I 57 W/m 14,2 km/h (3 Bft)
26.08.2014 10:02 13,8 C 12,8 C 100 % 1004,3 hPa 0,0 l/m 0 min 0 min 0,0 UV-I 60 W/m 17,7 km/h (3 Bft)
26.08.2014 10:04 13,7 C 12,8 C 100 % 1004,3 hPa 0,0 l/m 0 min 0 min 0,0 UV-I 57 W/m 28,2 km/h (4 Bft)
26.08.2014 10:06 13,7 C 12,8 C 100 % 1004,3 hPa 0,0 l/m 0 min 0 min 0,0 UV-I 56 W/m 21,3 km/h (4 Bft)
26.08.2014 10:08 13,7 C 12,8 C 100 % 1004,4 hPa 0,0 l/m 0 min 0 min 0,0 UV-I 58 W/m 21,3 km/h (4 Bft)
26.08.2014 10:10 13,8 C 12,8 C 100 % 1004,4 hPa 0,0 l/m 0 min 0 min 0,0 UV-I 59 W/m 17,7 km/h (3 Bft)
26.08.2014 10:12 13,8 C 12,8 C 100 % 1004,4 hPa 0,0 l/m 0 min 0 min 0,0 UV-I 64 W/m 14,2 km/h (3 Bft)
26.08.2014 10:14 13,9 C 12,8 C 100 % 1004,4 hPa 0,0 l/m 0 min 0 min 0,0 UV-I 81 W/m 14,2 km/h (3 Bft)
26.08.2014 10:16 13,9 C 13,3 C 100 % 1004,4 hPa 0,0 l/m 0 min 0 min 0,0 UV-I 86 W/m 7,1 km/h (2 Bft)
26.08.2014 10:18 13,9 C 13,3 C 100 % 1004,4 hPa 0,0 l/m 0 min 0 min 0,0 UV-I 72 W/m 14,2 km/h (3 Bft)
26.08.2014 10:20 14,0 C 13,3 C 100 % 1004,4 hPa 0,0 l/m 0 min 0 min 0,0 UV-I 66 W/m 17,7 km/h (3 Bft)
26.08.2014 10:22 13,9 C 13,3 C 100 % 1004,5 hPa 0,0 l/m 0 min 2 min 0,0 UV-I 62 W/m 24,7 km/h (4 Bft)
26.08.2014 10:24 13,9 C 12,8 C 100 % 1004,5 hPa 0,0 l/m 0 min 2 min 0,0 UV-I 62 W/m 10,7 km/h (2 Bft)
26.08.2014 10:26 13,9 C 12,8 C 100 % 1004,5 hPa 0,0 l/m 0 min 2 min 0,0 UV-I 59 W/m 3,5 km/h (1 Bft)
26.08.2014 10:28 13,9 C 12,8 C 100 % 1004,5 hPa 0,0 l/m 0 min 2 min 0,0 UV-I 54 W/m 14,2 km/h (3 Bft)
26.08.2014 10:30 13,9 C 12,8 C 100 % 1004,5 hPa 0,0 l/m 0 min 2 min 0,0 UV-I 59 W/m 7,1 km/h (2 Bft)
26.08.2014 10:32 13,9 C 12,8 C 100 % 1004,5 hPa 0,0 l/m 0 min 2 min 0,0 UV-I 63 W/m 17,7 km/h (3 Bft)
26.08.2014 10:34 14,0 C 12,8 C 100 % 1004,5 hPa 0,0 l/m 0 min 2 min 0,0 UV-I 66 W/m 17,7 km/h (3 Bft)
26.08.2014 10:36 14,0 C 12,8 C 100 % 1004,5 hPa 0,0 l/m 0 min 2 min 0,0 UV-I 69 W/m 21,3 km/h (4 Bft)
26.08.2014 10:38 13,9 C 12,8 C 100 % 1004,5 hPa 0,0 l/m 0 min 2 min 0,0 UV-I 72 W/m 24,7 km/h (4 Bft)
26.08.2014 10:40 14,0 C 12,8 C 100 % 1004,5 hPa 0,0 l/m 0 min 2 min 0,0 UV-I 73 W/m 21,3 km/h (4 Bft)
26.08.2014 10:42 13,9 C 12,8 C 100 % 1004,6 hPa 0,0 l/m 0 min 0 min 0,0 UV-I 77 W/m 17,7 km/h (3 Bft)
26.08.2014 10:44 13,9 C 13,3 C 100 % 1004,6 hPa 0,0 l/m 0 min 0 min 0,0 UV-I 79 W/m 21,3 km/h (4 Bft)
26.08.2014 10:46 14,1 C 13,3 C 100 % 1004,6 hPa 0,2 l/m 0 min 2 min 0,0 UV-I 72 W/m 0,0 km/h (0 Bft)
26.08.2014 10:48 14,1 C 13,3 C 100 % 1004,6 hPa 0,0 l/m 0 min 2 min 0,0 UV-I 68 W/m 17,7 km/h (3 Bft)
26.08.2014 10:50 14,1 C 13,3 C 100 % 1004,6 hPa 0,0 l/m 0 min 2 min 0,0 UV-I 74 W/m 0,0 km/h (0 Bft)
26.08.2014 10:52 14,2 C 13,3 C 100 % 1004,7 hPa 0,0 l/m 0 min 2 min 0,0 UV-I 79 W/m 3,5 km/h (1 Bft)
26.08.2014 10:54 14,2 C 13,3 C 100 % 1004,6 hPa 0,0 l/m 0 min 2 min 0,0 UV-I 92 W/m 21,3 km/h (4 Bft)
26.08.2014 10:56 14,1 C 13,3 C 100 % 1004,7 hPa 0,0 l/m 0 min 2 min 0,0 UV-I 103 W/m 17,7 km/h (3 Bft)
26.08.2014 10:58 14,1 C 13,3 C 100 % 1004,7 hPa 0,0 l/m 0 min 2 min 0,0 UV-I 100 W/m 0,0 km/h (0 Bft)
26.08.2014 11:00 14,2 C 13,3 C 100 % 1004,7 hPa 0,0 l/m 0 min 0 min 0,0 UV-I 95 W/m 10,7 km/h (2 Bft)
26.08.2014 11:02 14,2 C 13,3 C 100 % 1004,7 hPa 0,0 l/m 0 min 2 min 0,0 UV-I 94 W/m 28,2 km/h (4 Bft)
26.08.2014 11:04 14,2 C 13,3 C 100 % 1004,8 hPa 0,0 l/m 0 min 2 min 0,0 UV-I 95 W/m 10,7 km/h (2 Bft)
26.08.2014 11:06 14,2 C 13,3 C 100 % 1004,8 hPa 0,0 l/m 0 min 2 min 0,0 UV-I 98 W/m 21,3 km/h (4 Bft)
26.08.2014 11:08 14,1 C 13,3 C 100 % 1004,8 hPa 0,0 l/m 0 min 2 min 0,0 UV-I 103 W/m 24,7 km/h (4 Bft)
26.08.2014 11:10 14,2 C 13,3 C 99 % 1004,8 hPa 0,0 l/m 0 min 2 min 0,0 UV-I 103 W/m 17,7 km/h (3 Bft)
26.08.2014 11:12 14,2 C 13,3 C 99 % 1004,9 hPa 0,0 l/m 0 min 2 min 0,0 UV-I 85 W/m 10,7 km/h (2 Bft)
26.08.2014 11:14 14,2 C 13,3 C 99 % 1004,9 hPa 0,0 l/m 0 min 2 min 0,0 UV-I 94 W/m 17,7 km/h (3 Bft)
26.08.2014 11:16 14,2 C 13,3 C 99 % 1004,9 hPa 0,0 l/m 0 min 2 min 0,0 UV-I 111 W/m 28,2 km/h (4 Bft)
26.08.2014 11:18 14,2 C 13,3 C 99 % 1004,9 hPa 0,0 l/m 0 min 2 min 0,0 UV-I 126 W/m 17,7 km/h (3 Bft)
26.08.2014 11:20 14,2 C 13,3 C 99 % 1004,9 hPa 0,0 l/m 0 min 2 min 0,0 UV-I 138 W/m 14,2 km/h (3 Bft)
26.08.2014 11:22 14,3 C 13,3 C 99 % 1004,9 hPa 0,2 l/m 0 min 2 min 0,0 UV-I 141 W/m 17,7 km/h (3 Bft)
26.08.2014 11:24 14,3 C 13,9 C 100 % 1004,9 hPa 0,0 l/m 0 min 2 min 0,0 UV-I 142 W/m 17,7 km/h (3 Bft)
26.08.2014 11:26 14,3 C 13,9 C 100 % 1004,9 hPa 0,0 l/m 0 min 2 min 0,0 UV-I 137 W/m 21,3 km/h (4 Bft)
26.08.2014 11:28 14,3 C 13,3 C 100 % 1005,0 hPa 0,0 l/m 0 min 2 min 0,0 UV-I 122 W/m 21,3 km/h (4 Bft)
26.08.2014 11:30 14,3 C 13,3 C 100 % 1005,0 hPa 0,0 l/m 0 min 2 min 0,0 UV-I 94 W/m 21,3 km/h (4 Bft)
26.08.2014 11:32 14,4 C 13,3 C 100 % 1004,9 hPa 0,0 l/m 0 min 2 min 0,0 UV-I 103 W/m 17,7 km/h (3 Bft)
26.08.2014 11:34 14,4 C 13,9 C 100 % 1004,9 hPa 0,0 l/m 0 min 2 min 0,0 UV-I 116 W/m 17,7 km/h (3 Bft)
26.08.2014 11:36 14,4 C 13,3 C 100 % 1004,9 hPa 0,0 l/m 0 min 2 min 0,0 UV-I 116 W/m 21,3 km/h (4 Bft)
26.08.2014 11:38 14,3 C 13,3 C 100 % 1004,9 hPa 0,0 l/m 0 min 2 min 0,0 UV-I 123 W/m 31,7 km/h (5 Bft)
26.08.2014 11:40 14,3 C 13,3 C 100 % 1004,9 hPa 0,0 l/m 0 min 2 min 0,0 UV-I 130 W/m 35,4 km/h (5 Bft)
26.08.2014 11:42 14,2 C 13,3 C 99 % 1004,9 hPa 0,0 l/m 0 min 2 min 0,1 UV-I 134 W/m 21,3 km/h (4 Bft)
26.08.2014 11:44 14,2 C 13,3 C 99 % 1004,9 hPa 0,0 l/m 0 min 2 min 0,5 UV-I 146 W/m 24,7 km/h (4 Bft)
26.08.2014 11:46 14,3 C 13,3 C 99 % 1005,0 hPa 0,0 l/m 0 min 2 min 0,0 UV-I 138 W/m 28,2 km/h (4 Bft)
26.08.2014 11:48 14,3 C 13,3 C 99 % 1004,9 hPa 0,0 l/m 0 min 2 min 0,0 UV-I 140 W/m 21,3 km/h (4 Bft)
26.08.2014 11:50 14,4 C 13,9 C 99 % 1005,0 hPa 0,0 l/m 0 min 2 min 0,2 UV-I 146 W/m 24,7 km/h (4 Bft)
26.08.2014 11:52 14,4 C 13,9 C 99 % 1005,1 hPa 0,0 l/m 0 min 2 min 0,0 UV-I 126 W/m 17,7 km/h (3 Bft)
26.08.2014 11:54 14,4 C 13,9 C 99 % 1005,1 hPa 0,0 l/m 0 min 2 min 0,0 UV-I 123 W/m 24,7 km/h (4 Bft)
26.08.2014 11:56 14,4 C 13,3 C 99 % 1005,1 hPa 0,2 l/m 0 min 2 min 0,0 UV-I 127 W/m 38,9 km/h (6 Bft)
26.08.2014 11:58 14,4 C 13,3 C 99 % 1005,1 hPa 0,0 l/m 0 min 2 min 0,0 UV-I 123 W/m 24,7 km/h (4 Bft)
26.08.2014 12:00 14,3 C 13,3 C 99 % 1005,1 hPa 0,0 l/m 0 min 2 min 0,0 UV-I 110 W/m 24,7 km/h (4 Bft)
26.08.2014 12:02 14,3 C 13,3 C 99 % 1005,2 hPa 0,0 l/m 0 min 2 min 0,0 UV-I 93 W/m 21,3 km/h (4 Bft)
26.08.2014 12:05 14,4 C 13,3 C 99 % 1005,2 hPa 0,0 l/m 0 min 0 min 0,0 UV-I 83 W/m 21,3 km/h (4 Bft)
26.08.2014 12:06 14,4 C 13,3 C 99 % 1005,2 hPa 0,0 l/m 0 min 0 min 0,0 UV-I 84 W/m 21,3 km/h (4 Bft)
26.08.2014 12:08 14,3 C 13,3 C 99 % 1005,3 hPa 0,0 l/m 0 min 0 min 0,0 UV-I 87 W/m 28,2 km/h (4 Bft)
26.08.2014 12:10 14,3 C 13,3 C 99 % 1005,2 hPa 0,0 l/m 0 min 0 min 0,0 UV-I 97 W/m 28,2 km/h (4 Bft)
26.08.2014 12:12 14,2 C 13,3 C 99 % 1005,2 hPa 0,0 l/m 0 min 0 min 0,0 UV-I 111 W/m 17,7 km/h (3 Bft)
26.08.2014 12:14 14,3 C 13,3 C 99 % 1005,2 hPa 0,0 l/m 0 min 2 min 0,3 UV-I 147 W/m 28,2 km/h (4 Bft)
26.08.2014 12:16 14,4 C 13,9 C 99 % 1005,2 hPa 0,0 l/m 0 min 2 min 0,8 UV-I 188 W/m 28,2 km/h (4 Bft)
26.08.2014 12:18 14,4 C 13,9 C 99 % 1005,3 hPa 0,0 l/m 0 min 2 min 0,9 UV-I 193 W/m 14,2 km/h (3 Bft)
26.08.2014 12:20 14,6 C 13,9 C 99 % 1005,3 hPa 0,0 l/m 0 min 2 min 0,7 UV-I 172 W/m 0,0 km/h (0 Bft)
26.08.2014 12:22 14,6 C 13,9 C 99 % 1005,4 hPa 0,2 l/m 0 min 2 min 0,4 UV-I 148 W/m 14,2 km/h (3 Bft)
26.08.2014 12:24 14,6 C 13,9 C 99 % 1005,4 hPa 0,0 l/m 0 min 2 min 0,0 UV-I 120 W/m 10,7 km/h (2 Bft)
26.08.2014 12:26 14,7 C 13,9 C 99 % 1005,4 hPa 0,0 l/m 0 min 2 min 0,0 UV-I 108 W/m 17,7 km/h (3 Bft)
26.08.2014 12:28 14,6 C 13,9 C 99 % 1005,4 hPa 0,0 l/m 0 min 2 min 0,0 UV-I 104 W/m 24,7 km/h (4 Bft)
26.08.2014 12:30 14,6 C 13,9 C 99 % 1005,4 hPa 0,0 l/m 0 min 2 min 0,0 UV-I 87 W/m 17,7 km/h (3 Bft)
26.08.2014 12:32 14,6 C 13,3 C 99 % 1005,4 hPa 0,2 l/m 0 min 2 min 0,0 UV-I 66 W/m 0,0 km/h (0 Bft)
26.08.2014 12:34 14,5 C 13,3 C 99 % 1005,4 hPa 0,0 l/m 0 min 2 min 0,0 UV-I 65 W/m 31,7 km/h (5 Bft)
26.08.2014 12:36 14,5 C 13,3 C 99 % 1005,4 hPa 0,0 l/m 0 min 0 min 0,0 UV-I 83 W/m 21,3 km/h (4 Bft)
26.08.2014 12:38 14,6 C 13,9 C 99 % 1005,3 hPa 0,0 l/m 0 min 2 min 0,0 UV-I 97 W/m 24,7 km/h (4 Bft)
26.08.2014 12:40 14,6 C 13,9 C 99 % 1005,4 hPa 0,0 l/m 0 min 0 min 0,0 UV-I 115 W/m 21,3 km/h (4 Bft)
26.08.2014 12:42 14,7 C 13,9 C 99 % 1005,4 hPa 0,0 l/m 0 min 2 min 0,2 UV-I 122 W/m 24,7 km/h (4 Bft)
26.08.2014 12:44 14,7 C 13,9 C 99 % 1005,4 hPa 0,0 l/m 0 min 2 min 0,0 UV-I 107 W/m 17,7 km/h (3 Bft)
26.08.2014 12:46 14,6 C 13,9 C 99 % 1005,4 hPa 0,0 l/m 0 min 2 min 0,0 UV-I 89 W/m 17,7 km/h (3 Bft)
26.08.2014 12:48 14,6 C 13,3 C 99 % 1005,4 hPa 0,0 l/m 0 min 2 min 0,0 UV-I 85 W/m 31,7 km/h (5 Bft)
26.08.2014 12:50 14,4 C 13,3 C 99 % 1005,4 hPa 0,0 l/m 0 min 2 min 0,0 UV-I 64 W/m 28,2 km/h (4 Bft)
26.08.2014 12:52 14,4 C 13,3 C 99 % 1005,5 hPa 0,0 l/m 0 min 2 min 0,0 UV-I 52 W/m 31,7 km/h (5 Bft)
26.08.2014 12:54 14,4 C 13,3 C 99 % 1005,5 hPa 0,0 l/m 0 min 2 min 0,0 UV-I 57 W/m 24,7 km/h (4 Bft)
26.08.2014 12:56 14,3 C 13,3 C 99 % 1005,5 hPa 0,0 l/m 0 min 2 min 0,0 UV-I 55 W/m 24,7 km/h (4 Bft)
26.08.2014 12:58 14,3 C 13,3 C 99 % 1005,5 hPa 0,0 l/m 0 min 2 min 0,0 UV-I 57 W/m 24,7 km/h (4 Bft)
26.08.2014 13:00 14,2 C 13,3 C 99 % 1005,5 hPa 0,0 l/m 0 min 2 min 0,0 UV-I 52 W/m 28,2 km/h (4 Bft)
26.08.2014 13:02 14,2 C 13,3 C 99 % 1005,5 hPa 0,0 l/m 0 min 0 min 0,0 UV-I 49 W/m 24,7 km/h (4 Bft)
26.08.2014 13:04 14,2 C 13,3 C 99 % 1005,5 hPa 0,0 l/m 0 min 2 min 0,0 UV-I 48 W/m 35,4 km/h (5 Bft)
26.08.2014 13:06 14,2 C 13,3 C 99 % 1005,6 hPa 0,0 l/m 0 min 2 min 0,0 UV-I 45 W/m 31,7 km/h (5 Bft)
26.08.2014 13:08 14,2 C 12,8 C 99 % 1005,6 hPa 0,0 l/m 0 min 2 min 0,0 UV-I 45 W/m 28,2 km/h (4 Bft)
26.08.2014 13:10 14,2 C 12,8 C 99 % 1005,6 hPa 0,0 l/m 0 min 2 min 0,0 UV-I 53 W/m 35,4 km/h (5 Bft)
26.08.2014 13:12 14,2 C 13,3 C 99 % 1005,6 hPa 0,0 l/m 0 min 0 min 0,0 UV-I 54 W/m 28,2 km/h (4 Bft)
26.08.2014 13:14 14,2 C 13,3 C 99 % 1005,6 hPa 0,2 l/m 0 min 2 min 0,0 UV-I 45 W/m 14,2 km/h (3 Bft)
26.08.2014 13:16 14,2 C 13,3 C 99 % 1005,6 hPa 0,0 l/m 0 min 2 min 0,0 UV-I 39 W/m 14,2 km/h (3 Bft)
26.08.2014 13:18 14,2 C 12,8 C 99 % 1005,6 hPa 0,0 l/m 0 min 2 min 0,0 UV-I 34 W/m 17,7 km/h (3 Bft)
26.08.2014 13:20 14,2 C 12,8 C 99 % 1005,7 hPa 0,0 l/m 0 min 0 min 0,0 UV-I 34 W/m 24,7 km/h (4 Bft)
26.08.2014 13:22 14,2 C 12,8 C 99 % 1005,7 hPa 0,0 l/m 0 min 0 min 0,0 UV-I 30 W/m 21,3 km/h (4 Bft)
26.08.2014 13:24 14,2 C 13,3 C 99 % 1005,6 hPa 0,0 l/m 0 min 0 min 0,0 UV-I 28 W/m 17,7 km/h (3 Bft)
26.08.2014 13:26 14,2 C 13,3 C 99 % 1005,7 hPa 0,0 l/m 0 min 0 min 0,0 UV-I 29 W/m 21,3 km/h (4 Bft)
26.08.2014 13:28 14,2 C 12,8 C 99 % 1005,7 hPa 0,0 l/m 0 min 0 min 0,0 UV-I 29 W/m 21,3 km/h (4 Bft)
26.08.2014 13:30 14,2 C 12,8 C 99 % 1005,7 hPa 0,0 l/m 0 min 2 min 0,0 UV-I 30 W/m 17,7 km/h (3 Bft)
26.08.2014 13:32 14,2 C 12,8 C 99 % 1005,7 hPa 0,0 l/m 0 min 2 min 0,0 UV-I 31 W/m 28,2 km/h (4 Bft)
26.08.2014 13:34 14,2 C 12,8 C 99 % 1005,7 hPa 0,0 l/m 0 min 2 min 0,0 UV-I 37 W/m 14,2 km/h (3 Bft)
26.08.2014 13:36 14,2 C 13,3 C 99 % 1005,7 hPa 0,0 l/m 0 min 2 min 0,0 UV-I 40 W/m 24,7 km/h (4 Bft)
26.08.2014 13:38 14,2 C 13,3 C 99 % 1005,7 hPa 0,0 l/m 0 min 2 min 0,0 UV-I 43 W/m 24,7 km/h (4 Bft)
26.08.2014 13:40 14,2 C 13,3 C 99 % 1005,8 hPa 0,2 l/m 0 min 2 min 0,0 UV-I 40 W/m 24,7 km/h (4 Bft)
26.08.2014 13:42 14,2 C 12,8 C 99 % 1005,8 hPa 0,0 l/m 0 min 2 min 0,0 UV-I 30 W/m 14,2 km/h (3 Bft)
26.08.2014 13:44 14,2 C 13,3 C 99 % 1005,8 hPa 0,2 l/m 0 min 2 min 0,0 UV-I 29 W/m 24,7 km/h (4 Bft)
26.08.2014 13:46 14,2 C 12,8 C 99 % 1005,8 hPa 0,0 l/m 0 min 2 min 0,0 UV-I 31 W/m 24,7 km/h (4 Bft)
26.08.2014 13:48 14,2 C 12,8 C 99 % 1005,8 hPa 0,0 l/m 0 min 2 min 0,0 UV-I 32 W/m 21,3 km/h (4 Bft)
26.08.2014 13:50 14,2 C 12,8 C 99 % 1005,8 hPa 0,0 l/m 0 min 2 min 0,0 UV-I 25 W/m 14,2 km/h (3 Bft)
26.08.2014 13:52 14,2 C 12,8 C 99 % 1005,8 hPa 0,2 l/m 0 min 2 min 0,0 UV-I 20 W/m 21,3 km/h (4 Bft)
26.08.2014 13:54 14,2 C 12,8 C 99 % 1005,8 hPa 0,2 l/m 0 min 2 min 0,0 UV-I 19 W/m 17,7 km/h (3 Bft)
26.08.2014 13:56 14,2 C 12,8 C 99 % 1005,8 hPa 0,0 l/m 0 min 2 min 0,0 UV-I 21 W/m 10,7 km/h (2 Bft)
26.08.2014 13:58 14,2 C 12,8 C 99 % 1005,8 hPa 0,0 l/m 0 min 2 min 0,0 UV-I 20 W/m 14,2 km/h (3 Bft)
26.08.2014 14:00 14,2 C 12,8 C 99 % 1005,8 hPa 0,0 l/m 0 min 2 min 0,0 UV-I 21 W/m 14,2 km/h (3 Bft)
26.08.2014 14:02 14,2 C 12,8 C 99 % 1005,8 hPa 0,0 l/m 0 min 2 min 0,0 UV-I 30 W/m 17,7 km/h (3 Bft)
26.08.2014 14:04 14,2 C 13,3 C 99 % 1005,8 hPa 0,0 l/m 0 min 2 min 0,0 UV-I 29 W/m 14,2 km/h (3 Bft)
26.08.2014 14:06 14,2 C 13,3 C 99 % 1005,8 hPa 0,0 l/m 0 min 2 min 0,0 UV-I 39 W/m 24,7 km/h (4 Bft)
26.08.2014 14:08 14,2 C 13,3 C 99 % 1005,8 hPa 0,0 l/m 0 min 2 min 0,0 UV-I 55 W/m 21,3 km/h (4 Bft)
26.08.2014 14:10 14,2 C 13,3 C 99 % 1005,8 hPa 0,0 l/m 0 min 2 min 0,0 UV-I 67 W/m 7,1 km/h (2 Bft)
26.08.2014 14:12 14,2 C 13,3 C 99 % 1005,8 hPa 0,2 l/m 0 min 2 min 0,0 UV-I 69 W/m 24,7 km/h (4 Bft)
26.08.2014 14:14 14,2 C 13,3 C 99 % 1005,8 hPa 0,0 l/m 0 min 2 min 0,0 UV-I 74 W/m 14,2 km/h (3 Bft)
26.08.2014 14:16 14,2 C 13,3 C 99 % 1005,8 hPa 0,2 l/m 0 min 2 min 0,0 UV-I 72 W/m 24,7 km/h (4 Bft)
26.08.2014 14:18 14,2 C 13,3 C 99 % 1005,8 hPa 0,0 l/m 0 min 2 min 0,0 UV-I 75 W/m 28,2 km/h (4 Bft)
26.08.2014 14:20 14,3 C 13,3 C 99 % 1005,7 hPa 0,0 l/m 0 min 2 min 0,0 UV-I 74 W/m 17,7 km/h (3 Bft)
26.08.2014 14:22 14,3 C 13,3 C 99 % 1005,8 hPa 0,2 l/m 0 min 2 min 0,0 UV-I 64 W/m 24,7 km/h (4 Bft)
26.08.2014 14:24 14,3 C 13,3 C 99 % 1005,8 hPa 0,0 l/m 0 min 2 min 0,0 UV-I 59 W/m 21,3 km/h (4 Bft)
26.08.2014 14:26 14,3 C 13,3 C 99 % 1005,8 hPa 0,2 l/m 0 min 2 min 0,0 UV-I 49 W/m 10,7 km/h (2 Bft)
26.08.2014 14:28 14,3 C 13,3 C 99 % 1005,8 hPa 0,0 l/m 0 min 2 min 0,0 UV-I 48 W/m 21,3 km/h (4 Bft)
26.08.2014 14:30 14,2 C 13,3 C 99 % 1005,8 hPa 0,0 l/m 0 min 2 min 0,0 UV-I 64 W/m 17,7 km/h (3 Bft)
26.08.2014 14:32 14,3 C 13,3 C 99 % 1005,8 hPa 0,0 l/m 0 min 2 min 0,0 UV-I 55 W/m 17,7 km/h (3 Bft)
26.08.2014 14:34 14,3 C 13,3 C 99 % 1005,7 hPa 0,0 l/m 0 min 2 min 0,0 UV-I 44 W/m 17,7 km/h (3 Bft)
26.08.2014 14:36 14,2 C 13,3 C 99 % 1005,8 hPa 0,0 l/m 0 min 2 min 0,0 UV-I 43 W/m 28,2 km/h (4 Bft)
26.08.2014 14:38 14,2 C 13,3 C 99 % 1005,8 hPa 0,0 l/m 0 min 2 min 0,0 UV-I 42 W/m 21,3 km/h (4 Bft)
26.08.2014 14:40 14,2 C 13,3 C 99 % 1005,8 hPa 0,2 l/m 0 min 2 min 0,0 UV-I 45 W/m 24,7 km/h (4 Bft)
26.08.2014 14:42 14,2 C 13,3 C 99 % 1005,8 hPa 0,2 l/m 0 min 2 min 0,0 UV-I 54 W/m 24,7 km/h (4 Bft)
26.08.2014 14:44 14,2 C 12,8 C 99 % 1005,8 hPa 0,0 l/m 0 min 2 min 0,0 UV-I 57 W/m 31,7 km/h (5 Bft)
26.08.2014 14:46 14,2 C 12,8 C 99 % 1005,8 hPa 0,0 l/m 0 min 2 min 0,0 UV-I 55 W/m 28,2 km/h (4 Bft)
26.08.2014 14:48 14,2 C 12,8 C 99 % 1005,8 hPa 0,2 l/m 0 min 2 min 0,0 UV-I 50 W/m 21,3 km/h (4 Bft)
26.08.2014 14:50 14,1 C 12,8 C 99 % 1005,8 hPa 0,2 l/m 0 min 2 min 0,0 UV-I 56 W/m 17,7 km/h (3 Bft)
26.08.2014 14:52 14,2 C 13,3 C 99 % 1005,8 hPa 0,2 l/m 0 min 2 min 0,0 UV-I 78 W/m 14,2 km/h (3 Bft)
26.08.2014 14:54 14,2 C 13,3 C 99 % 1005,8 hPa 0,2 l/m 0 min 2 min 0,0 UV-I 89 W/m 21,3 km/h (4 Bft)
26.08.2014 14:56 14,2 C 13,3 C 99 % 1005,8 hPa 0,2 l/m 0 min 2 min 0,0 UV-I 94 W/m 10,7 km/h (2 Bft)
26.08.2014 14:58 14,2 C 13,3 C 99 % 1005,9 hPa 0,2 l/m 0 min 2 min 0,0 UV-I 86 W/m 21,3 km/h (4 Bft)
26.08.2014 15:00 14,2 C 13,3 C 99 % 1005,9 hPa 0,0 l/m 0 min 2 min 0,0 UV-I 78 W/m 17,7 km/h (3 Bft)
26.08.2014 15:02 14,2 C 12,8 C 99 % 1005,9 hPa 0,2 l/m 0 min 2 min 0,0 UV-I 79 W/m 24,7 km/h (4 Bft)
26.08.2014 15:04 14,1 C 13,3 C 99 % 1005,9 hPa 0,0 l/m 0 min 2 min 0,0 UV-I 91 W/m 17,7 km/h (3 Bft)
26.08.2014 15:06 14,2 C 13,3 C 99 % 1005,9 hPa 0,0 l/m 0 min 2 min 0,0 UV-I 99 W/m 35,4 km/h (5 Bft)
26.08.2014 15:08 14,1 C 12,8 C 99 % 1005,9 hPa 0,2 l/m 0 min 2 min 0,0 UV-I 88 W/m 28,2 km/h (4 Bft)
26.08.2014 15:10 14,1 C 12,8 C 99 % 1005,9 hPa 0,0 l/m 0 min 2 min 0,0 UV-I 77 W/m 21,3 km/h (4 Bft)
26.08.2014 15:12 14,1 C 12,8 C 99 % 1005,9 hPa 0,0 l/m 0 min 2 min 0,0 UV-I 76 W/m 28,2 km/h (4 Bft)
26.08.2014 15:14 14,1 C 12,8 C 99 % 1006,0 hPa 0,0 l/m 0 min 2 min 0,0 UV-I 76 W/m 28,2 km/h (4 Bft)
26.08.2014 15:16 14,0 C 12,8 C 99 % 1006,0 hPa 0,0 l/m 0 min 2 min 0,0 UV-I 77 W/m 24,7 km/h (4 Bft)
26.08.2014 15:18 13,9 C 12,8 C 99 % 1006,0 hPa 0,0 l/m 0 min 2 min 0,0 UV-I 85 W/m 24,7 km/h (4 Bft)
26.08.2014 15:20 14,0 C 12,8 C 99 % 1006,0 hPa 0,0 l/m 0 min 2 min 0,0 UV-I 94 W/m 21,3 km/h (4 Bft)
26.08.2014 15:22 14,1 C 13,3 C 99 % 1006,0 hPa 0,0 l/m 0 min 2 min 0,0 UV-I 93 W/m 21,3 km/h (4 Bft)
26.08.2014 15:24 14,1 C 13,3 C 99 % 1006,1 hPa 0,2 l/m 0 min 2 min 0,0 UV-I 91 W/m 24,7 km/h (4 Bft)
26.08.2014 15:26 13,9 C 12,8 C 99 % 1006,0 hPa 0,2 l/m 0 min 2 min 0,0 UV-I 94 W/m 24,7 km/h (4 Bft)
26.08.2014 15:28 13,9 C 12,8 C 99 % 1006,0 hPa 0,0 l/m 0 min 2 min 0,0 UV-I 98 W/m 24,7 km/h (4 Bft)
26.08.2014 15:30 13,9 C 12,8 C 99 % 1006,0 hPa 0,0 l/m 0 min 2 min 0,0 UV-I 103 W/m 28,2 km/h (4 Bft)
26.08.2014 15:32 13,9 C 12,8 C 99 % 1006,0 hPa 0,2 l/m 0 min 2 min 0,0 UV-I 107 W/m 31,7 km/h (5 Bft)
26.08.2014 15:34 13,9 C 12,8 C 99 % 1005,9 hPa 0,2 l/m 0 min 2 min 0,0 UV-I 109 W/m 24,7 km/h (4 Bft)
26.08.2014 15:36 13,9 C 12,8 C 99 % 1005,9 hPa 0,0 l/m 0 min 2 min 0,0 UV-I 105 W/m 28,2 km/h (4 Bft)
26.08.2014 15:38 13,9 C 12,8 C 99 % 1005,9 hPa 0,0 l/m 0 min 2 min 0,0 UV-I 101 W/m 21,3 km/h (4 Bft)
26.08.2014 15:40 13,9 C 12,8 C 99 % 1005,9 hPa 0,0 l/m 0 min 2 min 0,0 UV-I 100 W/m 31,7 km/h (5 Bft)
26.08.2014 15:42 13,9 C 12,8 C 99 % 1006,0 hPa 0,0 l/m 0 min 2 min 0,0 UV-I 99 W/m 24,7 km/h (4 Bft)
26.08.2014 15:44 13,9 C 12,8 C 99 % 1005,9 hPa 0,2 l/m 0 min 2 min 0,0 UV-I 100 W/m 24,7 km/h (4 Bft)
26.08.2014 15:46 13,9 C 12,8 C 99 % 1006,0 hPa 0,2 l/m 0 min 2 min 0,0 UV-I 99 W/m 21,3 km/h (4 Bft)
26.08.2014 15:48 13,9 C 12,8 C 99 % 1005,9 hPa 0,0 l/m 0 min 2 min 0,0 UV-I 93 W/m 28,2 km/h (4 Bft)
26.08.2014 15:50 13,9 C 12,8 C 99 % 1006,0 hPa 0,0 l/m 0 min 2 min 0,0 UV-I 82 W/m 17,7 km/h (3 Bft)
26.08.2014 15:52 13,9 C 12,8 C 99 % 1006,1 hPa 0,0 l/m 0 min 2 min 0,0 UV-I 74 W/m 31,7 km/h (5 Bft)
26.08.2014 15:54 13,8 C 12,8 C 99 % 1006,0 hPa 0,2 l/m 0 min 2 min 0,0 UV-I 70 W/m 28,2 km/h (4 Bft)
26.08.2014 15:56 13,8 C 12,8 C 99 % 1006,0 hPa 0,0 l/m 0 min 2 min 0,0 UV-I 70 W/m 28,2 km/h (4 Bft)
26.08.2014 15:58 13,8 C 12,8 C 99 % 1006,0 hPa 0,0 l/m 0 min 2 min 0,0 UV-I 68 W/m 31,7 km/h (5 Bft)
26.08.2014 16:00 13,8 C 12,8 C 99 % 1006,1 hPa 0,0 l/m 0 min 2 min 0,0 UV-I 62 W/m 21,3 km/h (4 Bft)
26.08.2014 16:02 13,8 C 12,8 C 99 % 1006,1 hPa 0,0 l/m 0 min 2 min 0,0 UV-I 59 W/m 14,2 km/h (3 Bft)
26.08.2014 16:04 13,8 C 12,8 C 99 % 1006,1 hPa 0,0 l/m 0 min 2 min 0,0 UV-I 59 W/m 28,2 km/h (4 Bft)
26.08.2014 16:06 13,7 C 12,8 C 99 % 1006,1 hPa 0,0 l/m 0 min 2 min 0,0 UV-I 60 W/m 31,7 km/h (5 Bft)
26.08.2014 16:08 13,7 C 12,8 C 99 % 1006,1 hPa 0,2 l/m 0 min 2 min 0,0 UV-I 61 W/m 28,2 km/h (4 Bft)
26.08.2014 16:10 13,7 C 12,8 C 99 % 1006,0 hPa 0,0 l/m 0 min 2 min 0,0 UV-I 66 W/m 28,2 km/h (4 Bft)
26.08.2014 16:12 13,7 C 12,8 C 99 % 1005,9 hPa 0,0 l/m 0 min 2 min 0,0 UV-I 73 W/m 28,2 km/h (4 Bft)
26.08.2014 16:14 13,8 C 12,8 C 99 % 1006,0 hPa 0,0 l/m 0 min 2 min 0,0 UV-I 81 W/m 21,3 km/h (4 Bft)
26.08.2014 16:16 13,8 C 12,8 C 99 % 1006,0 hPa 0,2 l/m 0 min 2 min 0,0 UV-I 77 W/m 10,7 km/h (2 Bft)
26.08.2014 16:18 13,9 C 12,8 C 99 % 1006,0 hPa 0,0 l/m 0 min 2 min 0,0 UV-I 67 W/m 17,7 km/h (3 Bft)
26.08.2014 16:20 13,9 C 12,8 C 99 % 1006,1 hPa 0,2 l/m 0 min 2 min 0,0 UV-I 49 W/m 17,7 km/h (3 Bft)
26.08.2014 16:22 13,9 C 12,8 C 99 % 1006,1 hPa 0,0 l/m 0 min 2 min 0,0 UV-I 42 W/m 14,2 km/h (3 Bft)
26.08.2014 16:24 13,9 C 12,8 C 99 % 1006,0 hPa 0,0 l/m 0 min 2 min 0,0 UV-I 44 W/m 10,7 km/h (2 Bft)
26.08.2014 16:26 14,0 C 12,8 C 99 % 1006,0 hPa 0,0 l/m 0 min 2 min 0,0 UV-I 52 W/m 0,0 km/h (0 Bft)
26.08.2014 16:28 14,1 C 12,8 C 99 % 1005,9 hPa 0,0 l/m 0 min 2 min 0,0 UV-I 68 W/m 0,0 km/h (0 Bft)
26.08.2014 16:30 14,2 C 13,3 C 99 % 1005,9 hPa 0,2 l/m 0 min 2 min 0,0 UV-I 70 W/m 24,7 km/h (4 Bft)
26.08.2014 16:32 14,2 C 13,3 C 99 % 1005,9 hPa 0,0 l/m 0 min 2 min 0,0 UV-I 83 W/m 17,7 km/h (3 Bft)
26.08.2014 16:34 14,2 C 13,3 C 99 % 1006,0 hPa 0,0 l/m 0 min 2 min 0,0 UV-I 76 W/m 14,2 km/h (3 Bft)
26.08.2014 16:36 14,2 C 13,3 C 99 % 1006,0 hPa 0,0 l/m 0 min 2 min 0,0 UV-I 61 W/m 0,0 km/h (0 Bft)
26.08.2014 16:38 14,2 C 13,3 C 99 % 1006,0 hPa 0,0 l/m 0 min 2 min 0,0 UV-I 53 W/m 10,7 km/h (2 Bft)
26.08.2014 16:40 14,2 C 13,3 C 99 % 1006,0 hPa 0,2 l/m 0 min 2 min 0,0 UV-I 53 W/m 21,3 km/h (4 Bft)
26.08.2014 16:42 14,2 C 13,3 C 99 % 1006,0 hPa 0,0 l/m 0 min 2 min 0,0 UV-I 53 W/m 24,7 km/h (4 Bft)
26.08.2014 16:44 14,2 C 13,3 C 99 % 1006,0 hPa 0,0 l/m 0 min 2 min 0,0 UV-I 49 W/m 24,7 km/h (4 Bft)
26.08.2014 16:46 14,2 C 13,3 C 99 % 1006,0 hPa 0,0 l/m 0 min 2 min 0,0 UV-I 50 W/m 17,7 km/h (3 Bft)
26.08.2014 16:48 14,2 C 13,3 C 99 % 1006,1 hPa 0,0 l/m 0 min 2 min 0,0 UV-I 54 W/m 24,7 km/h (4 Bft)
26.08.2014 16:50 14,2 C 13,3 C 99 % 1006,0 hPa 0,0 l/m 0 min 2 min 0,0 UV-I 51 W/m 24,7 km/h (4 Bft)
26.08.2014 16:52 14,2 C 13,3 C 99 % 1006,0 hPa 0,0 l/m 0 min 2 min 0,0 UV-I 46 W/m 38,9 km/h (6 Bft)
26.08.2014 16:54 14,2 C 13,3 C 99 % 1006,0 hPa 0,0 l/m 0 min 2 min 0,0 UV-I 58 W/m 24,7 km/h (4 Bft)
26.08.2014 16:56 14,2 C 13,3 C 99 % 1006,0 hPa 0,0 l/m 0 min 2 min 0,0 UV-I 57 W/m 24,7 km/h (4 Bft)
26.08.2014 16:58 14,2 C 13,3 C 99 % 1006,0 hPa 0,0 l/m 0 min 2 min 0,0 UV-I 54 W/m 21,3 km/h (4 Bft)
26.08.2014 17:00 14,2 C 13,3 C 99 % 1005,9 hPa 0,0 l/m 0 min 2 min 0,0 UV-I 57 W/m 31,7 km/h (5 Bft)
26.08.2014 17:02 14,2 C 13,3 C 99 % 1005,9 hPa 0,0 l/m 0 min 2 min 0,0 UV-I 62 W/m 21,3 km/h (4 Bft)
26.08.2014 17:04 14,2 C 13,3 C 99 % 1005,9 hPa 0,0 l/m 0 min 2 min 0,0 UV-I 67 W/m 31,7 km/h (5 Bft)
26.08.2014 17:06 14,2 C 13,3 C 99 % 1006,0 hPa 0,0 l/m 0 min 2 min 0,0 UV-I 69 W/m 31,7 km/h (5 Bft)
26.08.2014 17:08 14,2 C 13,3 C 99 % 1006,0 hPa 0,0 l/m 0 min 2 min 0,0 UV-I 68 W/m 38,9 km/h (6 Bft)
26.08.2014 17:10 14,2 C 13,3 C 99 % 1006,0 hPa 0,0 l/m 0 min 2 min 0,0 UV-I 66 W/m 28,2 km/h (4 Bft)
26.08.2014 17:12 14,2 C 13,3 C 99 % 1006,0 hPa 0,2 l/m 0 min 2 min 0,0 UV-I 62 W/m 28,2 km/h (4 Bft)
26.08.2014 17:14 14,2 C 12,8 C 99 % 1006,0 hPa 0,0 l/m 0 min 2 min 0,0 UV-I 55 W/m 28,2 km/h (4 Bft)
26.08.2014 17:16 14,2 C 12,8 C 99 % 1006,0 hPa 0,0 l/m 0 min 2 min 0,0 UV-I 54 W/m 28,2 km/h (4 Bft)
26.08.2014 17:18 14,2 C 12,8 C 99 % 1005,9 hPa 0,0 l/m 0 min 2 min 0,0 UV-I 57 W/m 31,7 km/h (5 Bft)
26.08.2014 17:20 14,2 C 12,8 C 99 % 1005,9 hPa 0,0 l/m 0 min 2 min 0,0 UV-I 62 W/m 35,4 km/h (5 Bft)
26.08.2014 17:22 14,2 C 12,8 C 99 % 1006,0 hPa 0,0 l/m 0 min 2 min 0,0 UV-I 65 W/m 24,7 km/h (4 Bft)
26.08.2014 17:24 14,2 C 12,8 C 99 % 1006,0 hPa 0,0 l/m 0 min 2 min 0,0 UV-I 68 W/m 28,2 km/h (4 Bft)
26.08.2014 17:26 14,2 C 12,8 C 99 % 1005,9 hPa 0,2 l/m 0 min 2 min 0,0 UV-I 72 W/m 24,7 km/h (4 Bft)
26.08.2014 17:28 14,2 C 12,8 C 99 % 1006,0 hPa 0,0 l/m 0 min 2 min 0,0 UV-I 75 W/m 24,7 km/h (4 Bft)
26.08.2014 17:30 14,2 C 13,3 C 99 % 1006,0 hPa 0,0 l/m 0 min 2 min 0,0 UV-I 82 W/m 24,7 km/h (4 Bft)
26.08.2014 17:32 14,2 C 13,3 C 99 % 1006,0 hPa 0,0 l/m 0 min 2 min 0,0 UV-I 90 W/m 24,7 km/h (4 Bft)
26.08.2014 17:34 14,2 C 13,3 C 99 % 1006,0 hPa 0,0 l/m 0 min 2 min 0,0 UV-I 100 W/m 28,2 km/h (4 Bft)
26.08.2014 17:36 14,2 C 13,3 C 99 % 1005,9 hPa 0,0 l/m 0 min 2 min 0,0 UV-I 107 W/m 24,7 km/h (4 Bft)
26.08.2014 17:38 14,2 C 13,3 C 99 % 1006,0 hPa 0,0 l/m 0 min 2 min 0,0 UV-I 112 W/m 21,3 km/h (4 Bft)
26.08.2014 17:40 14,3 C 13,3 C 99 % 1005,9 hPa 0,0 l/m 0 min 2 min 0,0 UV-I 115 W/m 28,2 km/h (4 Bft)
26.08.2014 17:42 14,4 C 13,3 C 99 % 1005,9 hPa 0,0 l/m 0 min 2 min 0,0 UV-I 121 W/m 31,7 km/h (5 Bft)
26.08.2014 17:44 14,4 C 13,3 C 99 % 1005,9 hPa 0,0 l/m 0 min 2 min 0,0 UV-I 123 W/m 28,2 km/h (4 Bft)
26.08.2014 17:46 14,3 C 13,3 C 99 % 1005,9 hPa 0,2 l/m 0 min 2 min 0,0 UV-I 122 W/m 35,4 km/h (5 Bft)
26.08.2014 17:48 14,4 C 13,3 C 99 % 1006,0 hPa 0,0 l/m 0 min 2 min 0,0 UV-I 118 W/m 38,9 km/h (6 Bft)
26.08.2014 17:50 14,4 C 13,3 C 99 % 1006,0 hPa 0,0 l/m 0 min 2 min 0,0 UV-I 114 W/m 31,7 km/h (5 Bft)
26.08.2014 17:52 14,4 C 13,3 C 99 % 1005,9 hPa 0,0 l/m 0 min 2 min 0,0 UV-I 110 W/m 28,2 km/h (4 Bft)
26.08.2014 17:54 14,4 C 13,3 C 99 % 1005,9 hPa 0,0 l/m 0 min 2 min 0,0 UV-I 107 W/m 35,4 km/h (5 Bft)
26.08.2014 17:56 14,4 C 13,3 C 99 % 1006,0 hPa 0,0 l/m 0 min 2 min 0,0 UV-I 106 W/m 35,4 km/h (5 Bft)
26.08.2014 17:58 14,4 C 13,3 C 99 % 1005,9 hPa 0,0 l/m 0 min 2 min 0,0 UV-I 105 W/m 28,2 km/h (4 Bft)
26.08.2014 18:00 14,4 C 13,3 C 99 % 1006,0 hPa 0,0 l/m 0 min 2 min 0,0 UV-I 102 W/m 38,9 km/h (6 Bft)
26.08.2014 18:02 14,4 C 13,3 C 99 % 1006,0 hPa 0,0 l/m 0 min 2 min 0,0 UV-I 98 W/m 28,2 km/h (4 Bft)
26.08.2014 18:06 14,5 C 13,3 C 99 % 1006,0 hPa 0,0 l/m 0 min 2 min 0,0 UV-I 94 W/m 38,9 km/h (6 Bft)
26.08.2014 18:08 14,4 C 13,3 C 99 % 1006,0 hPa 0,0 l/m 0 min 2 min 0,0 UV-I 91 W/m 28,2 km/h (4 Bft)
26.08.2014 18:10 14,4 C 13,3 C 99 % 1006,1 hPa 0,0 l/m 0 min 2 min 0,0 UV-I 90 W/m 24,7 km/h (4 Bft)
26.08.2014 18:12 14,5 C 13,3 C 99 % 1006,0 hPa 0,0 l/m 0 min 2 min 0,0 UV-I 90 W/m 21,3 km/h (4 Bft)
26.08.2014 18:14 14,5 C 13,3 C 99 % 1006,0 hPa 0,0 l/m 0 min 2 min 0,0 UV-I 90 W/m 31,7 km/h (5 Bft)
26.08.2014 18:16 14,4 C 13,3 C 99 % 1006,0 hPa 0,0 l/m 0 min 2 min 0,0 UV-I 89 W/m 24,7 km/h (4 Bft)
26.08.2014 18:18 14,4 C 13,3 C 99 % 1006,0 hPa 0,0 l/m 0 min 2 min 0,0 UV-I 84 W/m 24,7 km/h (4 Bft)
26.08.2014 18:20 14,4 C 13,3 C 99 % 1006,0 hPa 0,0 l/m 0 min 2 min 0,0 UV-I 82 W/m 21,3 km/h (4 Bft)
26.08.2014 18:22 14,4 C 13,3 C 99 % 1006,0 hPa 0,0 l/m 0 min 2 min 0,0 UV-I 77 W/m 28,2 km/h (4 Bft)
26.08.2014 18:24 14,4 C 13,3 C 99 % 1006,0 hPa 0,0 l/m 0 min 0 min 0,0 UV-I 71 W/m 10,7 km/h (2 Bft)
26.08.2014 18:26 14,4 C 13,3 C 99 % 1006,0 hPa 0,0 l/m 0 min 0 min 0,0 UV-I 67 W/m 14,2 km/h (3 Bft)
26.08.2014 18:28 14,4 C 13,3 C 99 % 1006,1 hPa 0,0 l/m 0 min 0 min 0,0 UV-I 63 W/m 24,7 km/h (4 Bft)
26.08.2014 18:30 14,4 C 13,3 C 99 % 1006,1 hPa 0,0 l/m 0 min 0 min 0,0 UV-I 62 W/m 31,7 km/h (5 Bft)
26.08.2014 18:32 14,4 C 13,3 C 99 % 1006,1 hPa 0,0 l/m 0 min 0 min 0,0 UV-I 60 W/m 31,7 km/h (5 Bft)
26.08.2014 18:34 14,3 C 13,3 C 99 % 1006,1 hPa 0,0 l/m 0 min 0 min 0,0 UV-I 61 W/m 28,2 km/h (4 Bft)
26.08.2014 18:36 14,3 C 13,3 C 99 % 1006,2 hPa 0,0 l/m 0 min 0 min 0,0 UV-I 62 W/m 31,7 km/h (5 Bft)
26.08.2014 18:38 14,3 C 13,3 C 99 % 1006,2 hPa 0,0 l/m 0 min 0 min 0,0 UV-I 61 W/m 17,7 km/h (3 Bft)
26.08.2014 18:40 14,3 C 13,3 C 99 % 1006,2 hPa 0,0 l/m 0 min 0 min 0,0 UV-I 58 W/m 17,7 km/h (3 Bft)
26.08.2014 18:42 14,3 C 13,3 C 99 % 1006,1 hPa 0,0 l/m 0 min 0 min 0,0 UV-I 56 W/m 31,7 km/h (5 Bft)
26.08.2014 18:44 14,3 C 13,3 C 99 % 1006,1 hPa 0,0 l/m 0 min 2 min 0,0 UV-I 54 W/m 24,7 km/h (4 Bft)
26.08.2014 18:46 14,3 C 13,3 C 99 % 1006,1 hPa 0,0 l/m 0 min 2 min 0,0 UV-I 52 W/m 21,3 km/h (4 Bft)
26.08.2014 18:48 14,2 C 13,3 C 99 % 1006,2 hPa 0,0 l/m 0 min 2 min 0,0 UV-I 50 W/m 24,7 km/h (4 Bft)
26.08.2014 18:50 14,2 C 13,3 C 99 % 1006,2 hPa 0,0 l/m 0 min 2 min 0,0 UV-I 47 W/m 28,2 km/h (4 Bft)
26.08.2014 18:52 14,2 C 13,3 C 99 % 1006,2 hPa 0,0 l/m 0 min 2 min 0,0 UV-I 46 W/m 24,7 km/h (4 Bft)
26.08.2014 18:54 14,2 C 13,3 C 99 % 1006,3 hPa 0,0 l/m 0 min 2 min 0,0 UV-I 43 W/m 17,7 km/h (3 Bft)
26.08.2014 18:56 14,2 C 13,3 C 99 % 1006,2 hPa 0,0 l/m 0 min 2 min 0,0 UV-I 40 W/m 31,7 km/h (5 Bft)
26.08.2014 18:58 14,2 C 12,8 C 99 % 1006,3 hPa 0,0 l/m 0 min 2 min 0,0 UV-I 36 W/m 24,7 km/h (4 Bft)
26.08.2014 19:00 14,2 C 12,8 C 99 % 1006,3 hPa 0,0 l/m 0 min 2 min 0,0 UV-I 33 W/m 28,2 km/h (4 Bft)
26.08.2014 19:02 14,2 C 12,8 C 99 % 1006,4 hPa 0,0 l/m 0 min 0 min 0,0 UV-I 30 W/m 31,7 km/h (5 Bft)
26.08.2014 19:04 14,2 C 12,8 C 99 % 1006,4 hPa 0,0 l/m 0 min 2 min 0,0 UV-I 27 W/m 31,7 km/h (5 Bft)
26.08.2014 19:06 14,2 C 12,8 C 99 % 1006,4 hPa 0,0 l/m 0 min 0 min 0,0 UV-I 25 W/m 35,4 km/h (5 Bft)
26.08.2014 19:08 14,2 C 12,8 C 99 % 1006,4 hPa 0,0 l/m 0 min 0 min 0,0 UV-I 23 W/m 24,7 km/h (4 Bft)
26.08.2014 19:10 14,2 C 12,8 C 99 % 1006,4 hPa 0,0 l/m 0 min 0 min 0,0 UV-I 21 W/m 24,7 km/h (4 Bft)
26.08.2014 19:12 14,2 C 12,8 C 99 % 1006,5 hPa 0,0 l/m 0 min 0 min 0,0 UV-I 19 W/m 24,7 km/h (4 Bft)
26.08.2014 19:14 14,2 C 12,8 C 99 % 1006,5 hPa 0,0 l/m 0 min 0 min 0,0 UV-I 17 W/m 35,4 km/h (5 Bft)
26.08.2014 19:16 14,2 C 12,8 C 99 % 1006,5 hPa 0,0 l/m 0 min 0 min 0,0 UV-I 16 W/m 31,7 km/h (5 Bft)
26.08.2014 19:18 14,2 C 12,8 C 99 % 1006,5 hPa 0,0 l/m 0 min 2 min 0,0 UV-I 14 W/m 28,2 km/h (4 Bft)
26.08.2014 19:20 14,2 C 12,8 C 99 % 1006,5 hPa 0,0 l/m 0 min 0 min 0,0 UV-I 14 W/m 24,7 km/h (4 Bft)
26.08.2014 19:22 14,2 C 12,8 C 99 % 1006,5 hPa 0,0 l/m 0 min 0 min 0,0 UV-I 14 W/m 24,7 km/h (4 Bft)
26.08.2014 19:24 14,2 C 12,8 C 99 % 1006,5 hPa 0,0 l/m 0 min 0 min 0,0 UV-I 12 W/m 28,2 km/h (4 Bft)
26.08.2014 19:26 14,2 C 12,8 C 99 % 1006,5 hPa 0,0 l/m 0 min 0 min 0,0 UV-I 12 W/m 24,7 km/h (4 Bft)
26.08.2014 19:28 14,2 C 12,8 C 99 % 1006,5 hPa 0,0 l/m 0 min 0 min 0,0 UV-I 12 W/m 17,7 km/h (3 Bft)
26.08.2014 19:30 14,2 C 12,8 C 99 % 1006,6 hPa 0,0 l/m 0 min 2 min 0,0 UV-I 12 W/m 31,7 km/h (5 Bft)
26.08.2014 19:32 14,2 C 12,8 C 99 % 1006,5 hPa 0,2 l/m 0 min 2 min 0,0 UV-I 11 W/m 28,2 km/h (4 Bft)
26.08.2014 19:34 14,2 C 12,8 C 99 % 1006,5 hPa 0,0 l/m 0 min 2 min 0,0 UV-I 11 W/m 28,2 km/h (4 Bft)
26.08.2014 19:36 14,2 C 12,8 C 99 % 1006,5 hPa 0,0 l/m 0 min 2 min 0,0 UV-I 9 W/m 31,7 km/h (5 Bft)
26.08.2014 19:38 14,2 C 12,8 C 99 % 1006,5 hPa 0,0 l/m 0 min 2 min 0,0 UV-I 9 W/m 38,9 km/h (6 Bft)
26.08.2014 19:40 14,2 C 12,8 C 99 % 1006,5 hPa 0,0 l/m 0 min 2 min 0,0 UV-I 9 W/m 35,4 km/h (5 Bft)
26.08.2014 19:42 14,1 C 12,8 C 99 % 1006,5 hPa 0,0 l/m 0 min 2 min 0,0 UV-I 9 W/m 31,7 km/h (5 Bft)
26.08.2014 19:44 14,1 C 12,8 C 99 % 1006,5 hPa 0,0 l/m 0 min 2 min 0,0 UV-I 9 W/m 28,2 km/h (4 Bft)
26.08.2014 19:46 14,1 C 12,8 C 99 % 1006,5 hPa 0,0 l/m 0 min 2 min 0,0 UV-I 7 W/m 38,9 km/h (6 Bft)
26.08.2014 19:48 14,0 C 12,8 C 99 % 1006,5 hPa 0,0 l/m 0 min 2 min 0,0 UV-I 7 W/m 28,2 km/h (4 Bft)
26.08.2014 19:50 14,0 C 12,8 C 99 % 1006,6 hPa 0,0 l/m 0 min 2 min 0,0 UV-I 7 W/m 35,4 km/h (5 Bft)
26.08.2014 19:52 14,0 C 12,8 C 99 % 1006,6 hPa 0,0 l/m 0 min 2 min 0,0 UV-I 7 W/m 35,4 km/h (5 Bft)
26.08.2014 19:54 13,9 C 12,2 C 99 % 1006,6 hPa 0,0 l/m 0 min 2 min 0,0 UV-I 7 W/m 28,2 km/h (4 Bft)
26.08.2014 19:56 13,9 C 12,2 C 99 % 1006,7 hPa 0,2 l/m 0 min 2 min 0,0 UV-I 6 W/m 31,7 km/h (5 Bft)
26.08.2014 19:58 13,9 C 12,2 C 99 % 1006,7 hPa 0,0 l/m 0 min 2 min 0,0 UV-I 5 W/m 28,2 km/h (4 Bft)
26.08.2014 20:00 13,9 C 12,2 C 99 % 1006,7 hPa 0,0 l/m 0 min 2 min 0,0 UV-I 5 W/m 38,9 km/h (6 Bft)
26.08.2014 20:02 13,9 C 12,2 C 99 % 1006,8 hPa 0,0 l/m 0 min 2 min 0,0 UV-I 5 W/m 28,2 km/h (4 Bft)
26.08.2014 20:04 13,8 C 12,2 C 99 % 1006,7 hPa 0,2 l/m 0 min 2 min 0,0 UV-I 5 W/m 31,7 km/h (5 Bft)
26.08.2014 20:06 13,8 C 12,2 C 99 % 1006,8 hPa 0,0 l/m 0 min 2 min 0,0 UV-I 5 W/m 31,7 km/h (5 Bft)
26.08.2014 20:08 13,8 C 12,2 C 98 % 1006,8 hPa 0,0 l/m 0 min 2 min 0,0 UV-I 2 W/m 38,9 km/h (6 Bft)
26.08.2014 20:10 13,8 C 12,2 C 98 % 1006,9 hPa 0,0 l/m 0 min 2 min 0,0 UV-I 0 W/m 28,2 km/h (4 Bft)
26.08.2014 20:12 13,8 C 12,2 C 98 % 1006,8 hPa 0,0 l/m 0 min 2 min 0,0 UV-I 0 W/m 38,9 km/h (6 Bft)
26.08.2014 20:14 13,8 C 12,2 C 98 % 1006,9 hPa 0,2 l/m 0 min 2 min 0,0 UV-I 0 W/m 38,9 km/h (6 Bft)
26.08.2014 20:16 13,8 C 12,2 C 98 % 1006,9 hPa 0,0 l/m 0 min 2 min 0,0 UV-I 0 W/m 24,7 km/h (4 Bft)
26.08.2014 20:18 13,7 C 12,2 C 98 % 1006,9 hPa 0,2 l/m 0 min 2 min 0,0 UV-I 0 W/m 31,7 km/h (5 Bft)
26.08.2014 20:20 13,7 C 12,2 C 98 % 1006,9 hPa 0,0 l/m 0 min 2 min 0,0 UV-I 0 W/m 21,3 km/h (4 Bft)
26.08.2014 20:22 13,7 C 12,2 C 98 % 1007,0 hPa 0,0 l/m 0 min 2 min 0,0 UV-I 0 W/m 31,7 km/h (5 Bft)
26.08.2014 20:24 13,7 C 12,2 C 98 % 1007,0 hPa 0,0 l/m 0 min 2 min 0,0 UV-I 0 W/m 14,2 km/h (3 Bft)
26.08.2014 20:26 13,7 C 12,2 C 98 % 1007,1 hPa 0,0 l/m 0 min 2 min 0,0 UV-I 0 W/m 24,7 km/h (4 Bft)
26.08.2014 20:28 13,7 C 12,2 C 98 % 1007,1 hPa 0,0 l/m 0 min 2 min 0,0 UV-I 0 W/m 31,7 km/h (5 Bft)
26.08.2014 20:30 13,7 C 12,2 C 98 % 1007,2 hPa 0,2 l/m 0 min 2 min 0,0 UV-I 0 W/m 38,9 km/h (6 Bft)
26.08.2014 20:32 13,6 C 12,2 C 98 % 1007,1 hPa 0,0 l/m 0 min 2 min 0,0 UV-I 0 W/m 35,4 km/h (5 Bft)
26.08.2014 20:34 13,6 C 12,2 C 98 % 1007,1 hPa 0,0 l/m 0 min 2 min 0,0 UV-I 0 W/m 28,2 km/h (4 Bft)
26.08.2014 20:36 13,6 C 12,2 C 98 % 1007,1 hPa 0,0 l/m 0 min 2 min 0,0 UV-I 0 W/m 24,7 km/h (4 Bft)
26.08.2014 20:38 13,6 C 12,2 C 98 % 1007,1 hPa 0,2 l/m 0 min 2 min 0,0 UV-I 0 W/m 35,4 km/h (5 Bft)
26.08.2014 20:40 13,6 C 12,2 C 98 % 1007,1 hPa 0,0 l/m 0 min 2 min 0,0 UV-I 0 W/m 31,7 km/h (5 Bft)
26.08.2014 20:42 13,6 C 12,2 C 98 % 1007,1 hPa 0,0 l/m 0 min 2 min 0,0 UV-I 0 W/m 31,7 km/h (5 Bft)
26.08.2014 20:44 13,6 C 12,2 C 98 % 1007,1 hPa 0,0 l/m 0 min 2 min 0,0 UV-I 0 W/m 24,7 km/h (4 Bft)
26.08.2014 20:46 13,6 C 12,2 C 98 % 1007,2 hPa 0,0 l/m 0 min 2 min 0,0 UV-I 0 W/m 35,4 km/h (5 Bft)
26.08.2014 20:48 13,6 C 12,2 C 98 % 1007,1 hPa 0,0 l/m 0 min 2 min 0,0 UV-I 0 W/m 24,7 km/h (4 Bft)
26.08.2014 20:50 13,6 C 12,2 C 98 % 1007,3 hPa 0,2 l/m 0 min 2 min 0,0 UV-I 0 W/m 35,4 km/h (5 Bft)
26.08.2014 20:52 13,6 C 12,2 C 98 % 1007,3 hPa 0,0 l/m 0 min 2 min 0,0 UV-I 0 W/m 35,4 km/h (5 Bft)
26.08.2014 20:54 13,6 C 12,2 C 98 % 1007,3 hPa 0,0 l/m 0 min 2 min 0,0 UV-I 0 W/m 28,2 km/h (4 Bft)
26.08.2014 20:56 13,6 C 12,2 C 98 % 1007,4 hPa 0,0 l/m 0 min 2 min 0,0 UV-I 0 W/m 31,7 km/h (5 Bft)
26.08.2014 20:58 13,6 C 12,2 C 98 % 1007,5 hPa 0,0 l/m 0 min 2 min 0,0 UV-I 0 W/m 49,5 km/h (6 Bft)
26.08.2014 21:00 13,6 C 12,2 C 98 % 1007,5 hPa 0,0 l/m 0 min 2 min 0,0 UV-I 0 W/m 24,7 km/h (4 Bft)
26.08.2014 21:02 13,6 C 12,2 C 98 % 1007,5 hPa 0,0 l/m 0 min 2 min 0,0 UV-I 0 W/m 28,2 km/h (4 Bft)
26.08.2014 21:04 13,5 C 12,2 C 98 % 1007,5 hPa 0,0 l/m 0 min 2 min 0,0 UV-I 0 W/m 24,7 km/h (4 Bft)
26.08.2014 21:06 13,5 C 12,2 C 98 % 1007,5 hPa 0,0 l/m 0 min 2 min 0,0 UV-I 0 W/m 24,7 km/h (4 Bft)
26.08.2014 21:08 13,5 C 12,2 C 98 % 1007,5 hPa 0,2 l/m 0 min 2 min 0,0 UV-I 0 W/m 31,7 km/h (5 Bft)
26.08.2014 21:10 13,5 C 12,2 C 98 % 1007,6 hPa 0,0 l/m 0 min 2 min 0,0 UV-I 0 W/m 28,2 km/h (4 Bft)
26.08.2014 21:12 13,4 C 12,2 C 98 % 1007,6 hPa 0,0 l/m 0 min 2 min 0,0 UV-I 0 W/m 31,7 km/h (5 Bft)
26.08.2014 21:14 13,4 C 12,2 C 98 % 1007,7 hPa 0,0 l/m 0 min 0 min 0,0 UV-I 0 W/m 17,7 km/h (3 Bft)
26.08.2014 21:16 13,4 C 12,2 C 98 % 1007,8 hPa 0,0 l/m 0 min 2 min 0,0 UV-I 0 W/m 28,2 km/h (4 Bft)
26.08.2014 21:18 13,4 C 12,2 C 98 % 1007,8 hPa 0,0 l/m 0 min 0 min 0,0 UV-I 0 W/m 17,7 km/h (3 Bft)
26.08.2014 21:20 13,4 C 12,2 C 98 % 1007,8 hPa 0,0 l/m 0 min 0 min 0,0 UV-I 0 W/m 17,7 km/h (3 Bft)
26.08.2014 21:22 13,4 C 12,2 C 98 % 1007,8 hPa 0,0 l/m 0 min 0 min 0,0 UV-I 0 W/m 28,2 km/h (4 Bft)
26.08.2014 21:24 13,4 C 12,2 C 98 % 1007,8 hPa 0,0 l/m 0 min 0 min 0,0 UV-I 0 W/m 31,7 km/h (5 Bft)
26.08.2014 21:26 13,4 C 12,2 C 98 % 1007,9 hPa 0,0 l/m 0 min 0 min 0,0 UV-I 0 W/m 14,2 km/h (3 Bft)
26.08.2014 21:28 13,4 C 12,2 C 98 % 1007,9 hPa 0,0 l/m 0 min 0 min 0,0 UV-I 0 W/m 21,3 km/h (4 Bft)
26.08.2014 21:30 13,4 C 12,2 C 98 % 1007,9 hPa 0,0 l/m 0 min 0 min 0,0 UV-I 0 W/m 21,3 km/h (4 Bft)
26.08.2014 21:32 13,4 C 12,2 C 98 % 1007,9 hPa 0,0 l/m 0 min 0 min 0,0 UV-I 0 W/m 21,3 km/h (4 Bft)
26.08.2014 21:34 13,4 C 12,2 C 98 % 1007,9 hPa 0,0 l/m 0 min 0 min 0,0 UV-I 0 W/m 17,7 km/h (3 Bft)
26.08.2014 21:36 13,4 C 12,2 C 98 % 1007,9 hPa 0,0 l/m 0 min 0 min 0,0 UV-I 0 W/m 24,7 km/h (4 Bft)
26.08.2014 21:38 13,4 C 12,2 C 98 % 1008,0 hPa 0,0 l/m 0 min 0 min 0,0 UV-I 0 W/m 28,2 km/h (4 Bft)
26.08.2014 21:40 13,4 C 12,2 C 98 % 1008,0 hPa 0,0 l/m 0 min 0 min 0,0 UV-I 0 W/m 24,7 km/h (4 Bft)
26.08.2014 21:42 13,3 C 12,2 C 98 % 1008,0 hPa 0,0 l/m 0 min 0 min 0,0 UV-I 0 W/m 24,7 km/h (4 Bft)
26.08.2014 21:44 13,4 C 12,2 C 98 % 1008,1 hPa 0,0 l/m 0 min 2 min 0,0 UV-I 0 W/m 14,2 km/h (3 Bft)
26.08.2014 21:46 13,3 C 12,2 C 98 % 1008,1 hPa 0,0 l/m 0 min 2 min 0,0 UV-I 0 W/m 17,7 km/h (3 Bft)
26.08.2014 21:48 13,3 C 12,2 C 98 % 1008,1 hPa 0,0 l/m 0 min 2 min 0,0 UV-I 0 W/m 14,2 km/h (3 Bft)
26.08.2014 21:50 13,3 C 12,2 C 98 % 1008,2 hPa 0,0 l/m 0 min 2 min 0,0 UV-I 0 W/m 14,2 km/h (3 Bft)
26.08.2014 21:52 13,3 C 12,2 C 98 % 1008,2 hPa 0,0 l/m 0 min 2 min 0,0 UV-I 0 W/m 14,2 km/h (3 Bft)
26.08.2014 21:54 13,3 C 12,2 C 98 % 1008,2 hPa 0,0 l/m 0 min 2 min 0,0 UV-I 0 W/m 10,7 km/h (2 Bft)
26.08.2014 21:56 13,3 C 12,2 C 98 % 1008,2 hPa 0,0 l/m 0 min 2 min 0,0 UV-I 0 W/m 7,1 km/h (2 Bft)
26.08.2014 21:58 13,4 C 12,2 C 98 % 1008,2 hPa 0,0 l/m 0 min 2 min 0,0 UV-I 0 W/m 0,0 km/h (0 Bft)
26.08.2014 22:00 13,3 C 12,2 C 98 % 1008,2 hPa 0,0 l/m 0 min 2 min 0,0 UV-I 0 W/m 7,1 km/h (2 Bft)
26.08.2014 22:02 13,3 C 12,2 C 98 % 1008,2 hPa 0,0 l/m 0 min 2 min 0,0 UV-I 0 W/m 14,2 km/h (3 Bft)
26.08.2014 22:04 13,3 C 12,2 C 98 % 1008,3 hPa 0,0 l/m 0 min 2 min 0,0 UV-I 0 W/m 10,7 km/h (2 Bft)
26.08.2014 22:06 13,3 C 12,2 C 98 % 1008,3 hPa 0,0 l/m 0 min 2 min 0,0 UV-I 0 W/m 17,7 km/h (3 Bft)
26.08.2014 22:08 13,3 C 12,2 C 98 % 1008,4 hPa 0,0 l/m 0 min 2 min 0,0 UV-I 0 W/m 14,2 km/h (3 Bft)
26.08.2014 22:10 13,3 C 12,2 C 98 % 1008,4 hPa 0,0 l/m 0 min 2 min 0,0 UV-I 0 W/m 14,2 km/h (3 Bft)
26.08.2014 22:12 13,4 C 12,2 C 98 % 1008,4 hPa 0,0 l/m 0 min 2 min 0,0 UV-I 0 W/m 14,2 km/h (3 Bft)
26.08.2014 22:14 13,4 C 12,2 C 98 % 1008,5 hPa 0,0 l/m 0 min 2 min 0,0 UV-I 0 W/m 14,2 km/h (3 Bft)
26.08.2014 22:16 13,4 C 12,2 C 98 % 1008,5 hPa 0,0 l/m 0 min 0 min 0,0 UV-I 0 W/m 14,2 km/h (3 Bft)
26.08.2014 22:18 13,4 C 12,2 C 98 % 1008,6 hPa 0,0 l/m 0 min 0 min 0,0 UV-I 0 W/m 14,2 km/h (3 Bft)
26.08.2014 22:20 13,4 C 12,2 C 98 % 1008,5 hPa 0,0 l/m 0 min 0 min 0,0 UV-I 0 W/m 10,7 km/h (2 Bft)
26.08.2014 22:22 13,4 C 12,2 C 98 % 1008,5 hPa 0,0 l/m 0 min 0 min 0,0 UV-I 0 W/m 0,0 km/h (0 Bft)
26.08.2014 22:24 13,4 C 12,2 C 98 % 1008,5 hPa 0,0 l/m 0 min 0 min 0,0 UV-I 0 W/m 10,7 km/h (2 Bft)
26.08.2014 22:26 13,4 C 12,2 C 98 % 1008,5 hPa 0,0 l/m 0 min 0 min 0,0 UV-I 0 W/m 14,2 km/h (3 Bft)
26.08.2014 22:28 13,4 C 12,2 C 98 % 1008,5 hPa 0,0 l/m 0 min 0 min 0,0 UV-I 0 W/m 14,2 km/h (3 Bft)
26.08.2014 22:30 13,4 C 12,2 C 98 % 1008,6 hPa 0,0 l/m 0 min 0 min 0,0 UV-I 0 W/m 17,7 km/h (3 Bft)
26.08.2014 22:32 13,4 C 12,2 C 98 % 1008,6 hPa 0,0 l/m 0 min 0 min 0,0 UV-I 0 W/m 10,7 km/h (2 Bft)
26.08.2014 22:34 13,4 C 12,2 C 98 % 1008,5 hPa 0,0 l/m 0 min 0 min 0,0 UV-I 0 W/m 14,2 km/h (3 Bft)
26.08.2014 22:36 13,4 C 12,2 C 98 % 1008,5 hPa 0,0 l/m 0 min 0 min 0,0 UV-I 0 W/m 0,0 km/h (0 Bft)
26.08.2014 22:38 13,4 C 12,2 C 98 % 1008,5 hPa 0,0 l/m 0 min 0 min 0,0 UV-I 0 W/m 0,0 km/h (0 Bft)
26.08.2014 22:40 13,4 C 12,2 C 98 % 1008,5 hPa 0,0 l/m 0 min 0 min 0,0 UV-I 0 W/m 10,7 km/h (2 Bft)
26.08.2014 22:42 13,4 C 12,2 C 98 % 1008,6 hPa 0,0 l/m 0 min 0 min 0,0 UV-I 0 W/m 10,7 km/h (2 Bft)
26.08.2014 22:44 13,4 C 12,2 C 98 % 1008,6 hPa 0,0 l/m 0 min 0 min 0,0 UV-I 0 W/m 10,7 km/h (2 Bft)
26.08.2014 22:46 13,4 C 12,2 C 98 % 1008,6 hPa 0,0 l/m 0 min 0 min 0,0 UV-I 0 W/m 14,2 km/h (3 Bft)
26.08.2014 22:48 13,4 C 12,2 C 98 % 1008,7 hPa 0,0 l/m 0 min 0 min 0,0 UV-I 0 W/m 3,5 km/h (1 Bft)
26.08.2014 22:50 13,4 C 12,2 C 98 % 1008,7 hPa 0,0 l/m 0 min 0 min 0,0 UV-I 0 W/m 0,0 km/h (0 Bft)
26.08.2014 22:52 13,4 C 12,2 C 98 % 1008,8 hPa 0,0 l/m 0 min 0 min 0,0 UV-I 0 W/m 10,7 km/h (2 Bft)
26.08.2014 22:54 13,4 C 12,2 C 98 % 1008,8 hPa 0,0 l/m 0 min 2 min 0,0 UV-I 0 W/m 10,7 km/h (2 Bft)
26.08.2014 22:56 13,4 C 12,2 C 98 % 1008,7 hPa 0,0 l/m 0 min 0 min 0,0 UV-I 0 W/m 10,7 km/h (2 Bft)
26.08.2014 22:58 13,4 C 12,2 C 98 % 1008,7 hPa 0,0 l/m 0 min 0 min 0,0 UV-I 0 W/m 10,7 km/h (2 Bft)
26.08.2014 23:00 13,4 C 12,2 C 98 % 1008,7 hPa 0,0 l/m 0 min 0 min 0,0 UV-I 0 W/m 14,2 km/h (3 Bft)
26.08.2014 23:02 13,4 C 12,2 C 98 % 1008,7 hPa 0,0 l/m 0 min 0 min 0,0 UV-I 0 W/m 14,2 km/h (3 Bft)
26.08.2014 23:04 13,4 C 12,2 C 98 % 1008,8 hPa 0,0 l/m 0 min 0 min 0,0 UV-I 0 W/m 10,7 km/h (2 Bft)
26.08.2014 23:06 13,4 C 12,2 C 98 % 1008,8 hPa 0,0 l/m 0 min 0 min 0,0 UV-I 0 W/m 10,7 km/h (2 Bft)
26.08.2014 23:08 13,4 C 12,2 C 98 % 1008,8 hPa 0,0 l/m 0 min 0 min 0,0 UV-I 0 W/m 10,7 km/h (2 Bft)
26.08.2014 23:10 13,4 C 12,2 C 98 % 1008,8 hPa 0,0 l/m 0 min 0 min 0,0 UV-I 0 W/m 0,0 km/h (0 Bft)
26.08.2014 23:12 13,4 C 12,2 C 98 % 1008,9 hPa 0,0 l/m 0 min 0 min 0,0 UV-I 0 W/m 10,7 km/h (2 Bft)
26.08.2014 23:14 13,4 C 12,2 C 98 % 1008,9 hPa 0,0 l/m 0 min 0 min 0,0 UV-I 0 W/m 0,0 km/h (0 Bft)
26.08.2014 23:16 13,4 C 12,2 C 98 % 1008,9 hPa 0,0 l/m 0 min 0 min 0,0 UV-I 0 W/m 3,5 km/h (1 Bft)
26.08.2014 23:18 13,4 C 12,2 C 98 % 1008,9 hPa 0,0 l/m 0 min 0 min 0,0 UV-I 0 W/m 0,0 km/h (0 Bft)
26.08.2014 23:20 13,4 C 12,2 C 98 % 1008,9 hPa 0,0 l/m 0 min 0 min 0,0 UV-I 0 W/m 0,0 km/h (0 Bft)
26.08.2014 23:22 13,4 C 12,2 C 98 % 1009,0 hPa 0,0 l/m 0 min 0 min 0,0 UV-I 0 W/m 0,0 km/h (0 Bft)
26.08.2014 23:24 13,4 C 12,2 C 98 % 1009,0 hPa 0,0 l/m 0 min 0 min 0,0 UV-I 0 W/m 0,0 km/h (0 Bft)
26.08.2014 23:26 13,4 C 12,2 C 98 % 1009,0 hPa 0,0 l/m 0 min 0 min 0,0 UV-I 0 W/m 14,2 km/h (3 Bft)
26.08.2014 23:28 13,4 C 12,2 C 98 % 1009,0 hPa 0,0 l/m 0 min 0 min 0,0 UV-I 0 W/m 3,5 km/h (1 Bft)
26.08.2014 23:30 13,4 C 12,2 C 98 % 1009,0 hPa 0,0 l/m 0 min 0 min 0,0 UV-I 0 W/m 0,0 km/h (0 Bft)
26.08.2014 23:32 13,4 C 12,2 C 98 % 1009,0 hPa 0,0 l/m 0 min 0 min 0,0 UV-I 0 W/m 0,0 km/h (0 Bft)
26.08.2014 23:34 13,4 C 12,2 C 98 % 1009,0 hPa 0,0 l/m 0 min 0 min 0,0 UV-I 0 W/m 10,7 km/h (2 Bft)
26.08.2014 23:36 13,5 C 12,2 C 98 % 1009,1 hPa 0,0 l/m 0 min 0 min 0,0 UV-I 0 W/m 3,5 km/h (1 Bft)
26.08.2014 23:38 13,5 C 12,2 C 98 % 1009,0 hPa 0,0 l/m 0 min 0 min 0,0 UV-I 0 W/m 7,1 km/h (2 Bft)
26.08.2014 23:40 13,5 C 12,2 C 98 % 1009,1 hPa 0,0 l/m 0 min 0 min 0,0 UV-I 0 W/m 14,2 km/h (3 Bft)
26.08.2014 23:42 13,5 C 12,2 C 98 % 1009,1 hPa 0,0 l/m 0 min 0 min 0,0 UV-I 0 W/m 14,2 km/h (3 Bft)
26.08.2014 23:44 13,5 C 12,2 C 98 % 1009,0 hPa 0,0 l/m 0 min 0 min 0,0 UV-I 0 W/m 10,7 km/h (2 Bft)
26.08.2014 23:46 13,5 C 12,2 C 98 % 1009,0 hPa 0,0 l/m 0 min 0 min 0,0 UV-I 0 W/m 3,5 km/h (1 Bft)
26.08.2014 23:48 13,6 C 12,2 C 98 % 1009,1 hPa 0,0 l/m 0 min 0 min 0,0 UV-I 0 W/m 10,7 km/h (2 Bft)
26.08.2014 23:50 13,6 C 12,2 C 98 % 1009,1 hPa 0,0 l/m 0 min 0 min 0,0 UV-I 0 W/m 10,7 km/h (2 Bft)
26.08.2014 23:52 13,6 C 12,2 C 99 % 1009,2 hPa 0,0 l/m 0 min 0 min 0,0 UV-I 0 W/m 10,7 km/h (2 Bft)
26.08.2014 23:54 13,6 C 12,2 C 99 % 1009,2 hPa 0,0 l/m 0 min 0 min 0,0 UV-I 0 W/m 10,7 km/h (2 Bft)
26.08.2014 23:56 13,6 C 12,2 C 99 % 1009,2 hPa 0,0 l/m 0 min 0 min 0,0 UV-I 0 W/m 10,7 km/h (2 Bft)
26.08.2014 23:58 13,6 C 12,2 C 99 % 1009,2 hPa 0,0 l/m 0 min 0 min 0,0 UV-I 0 W/m 0,0 km/h (0 Bft)
_ Min-Zeit 07:04 01:20 20:08 05:04 - - - - - 05:54
Minimum _ 13,0 C 12,2 C 98 % 1002,1 hPa - - - - - 0,0 km/h (0 Bft)
_ Max-Zeit 12:22 11:24 07:10 23:52 00:05 00:00 00:00 12:18 12:18 20:58
Maximum _ 14,7 C 13,9 C 100 % 1009,2 hPa 0,4 l/m 0 min 2 min 0,9 UV-I 193 W/m 49,5 km/h
O-NO (6 Bft)
Durchschnitt _ 13,7 C 12,7 C 99 % 1005,3 hPa #24,8 l/m #0 min. #17:51 h 0,5 UV-I 64 W/m 20,8 km/h (4 Bft)
© 2014 W. Hausmann